Observation data for Umbarger on 12/11/2018      Previous  Date       Current Mesonet Observations  Soil Data  Daily Summary Page  Observations in Plain Language
KUM1 110600Z 23011KT M02/M05 A3022 RMK A01 T10201049  RH  081%=      5-min Rain = 0
KUM1 110601Z 23012KT M02/M05 A3022 RMK A01 T10191048  RH  080%=      5-min Rain = 0
KUM1 110602Z 23010KT M02/M05 A3022 RMK A01 T10181048  RH  080%=      5-min Rain = 0
KUM1 110603Z 23011KT M02/M05 A3022 RMK A01 T10181049  RH  079%=      5-min Rain = 0
KUM1 110604Z 23011KT M02/M05 A3022 RMK A01 T10181049  RH  079%=      5-min Rain = 0
KUM1 110605Z 22010KT M02/M05 A3022 RMK A01 T10171050  RH  078%=      5-min Rain = 0
KUM1 110606Z 22010KT M02/M05 A3022 RMK A01 T10171050  RH  078%=      5-min Rain = 0
KUM1 110607Z 22010KT M02/M05 A3022 RMK A01 T10181051  RH  078%=      5-min Rain = 0
KUM1 110608Z 22010KT M02/M05 A3022 RMK A01 T10191051  RH  079%=      5-min Rain = 0
KUM1 110609Z 22010KT M02/M05 A3022 RMK A01 T10211052  RH  079%=      5-min Rain = 0
KUM1 110610Z 22009KT M02/M05 A3022 RMK A01 T10221052  RH  080%=      5-min Rain = 0
KUM1 110611Z 22010KT M02/M05 A3022 RMK A01 T10221052  RH  080%=      5-min Rain = 0
KUM1 110612Z 22010KT M02/M05 A3022 RMK A01 T10221051  RH  080%=      5-min Rain = 0
KUM1 110613Z 22011KT M02/M05 A3022 RMK A01 T10211051  RH  080%=      5-min Rain = 0
KUM1 110614Z 22010KT M02/M05 A3022 RMK A01 T10181050  RH  079%=      5-min Rain = 0
KUM1 110615Z 22011KT M02/M05 A3022 RMK A01 T10171049  RH  079%=      5-min Rain = 0
KUM1 110616Z 22010KT M02/M05 A3022 RMK A01 T10161049  RH  078%=      5-min Rain = 0
KUM1 110617Z 22010KT M02/M05 A3022 RMK A01 T10151049  RH  078%=      5-min Rain = 0
KUM1 110618Z 22011KT M02/M05 A3022 RMK A01 T10151049  RH  078%=      5-min Rain = 0
KUM1 110619Z 22011KT M01/M05 A3022 RMK A01 T10141049  RH  077%=      5-min Rain = 0
KUM1 110620Z 22011KT M01/M05 A3022 RMK A01 T10121048  RH  077%=      5-min Rain = 0
KUM1 110621Z 22011KT M01/M05 A3022 RMK A01 T10111047  RH  076%=      5-min Rain = 0
KUM1 110622Z 22011KT M01/M05 A3022 RMK A01 T10111048  RH  076%=      5-min Rain = 0
KUM1 110623Z 22011KT M01/M05 A3022 RMK A01 T10101047  RH  076%=      5-min Rain = 0
KUM1 110624Z 22012KT M01/M05 A3022 RMK A01 T10091047  RH  075%=      5-min Rain = 0
KUM1 110625Z 22011KT M01/M05 A3022 RMK A01 T10081047  RH  075%=      5-min Rain = 0
KUM1 110626Z 22011KT M01/M05 A3022 RMK A01 T10091047  RH  075%=      5-min Rain = 0
KUM1 110627Z 22011KT M01/M05 A3022 RMK A01 T10091047  RH  076%=      5-min Rain = 0
KUM1 110628Z 21011KT M01/M05 A3022 RMK A01 T10101047  RH  076%=      5-min Rain = 0
KUM1 110629Z 21011KT M01/M05 A3022 RMK A01 T10111047  RH  076%=      5-min Rain = 0
KUM1 110630Z 21012KT M01/M05 A3022 RMK A01 T10121048  RH  076%=      5-min Rain = 0
KUM1 110631Z 21012KT M01/M05 A3022 RMK A01 T10131049  RH  076%=      5-min Rain = 0
KUM1 110632Z 22012KT M01/M05 A3021 RMK A01 T10131050  RH  076%=      5-min Rain = 0
KUM1 110633Z 22011KT M01/M05 A3021 RMK A01 T10141051  RH  076%=      5-min Rain = 0
KUM1 110634Z 22011KT M02/M05 A3021 RMK A01 T10151051  RH  076%=      5-min Rain = 0
KUM1 110635Z 22011KT M02/M05 A3021 RMK A01 T10151051  RH  076%=      5-min Rain = 0
KUM1 110636Z 22011KT M02/M05 A3021 RMK A01 T10151051  RH  076%=      5-min Rain = 0
KUM1 110637Z 22011KT M02/M05 A3021 RMK A01 T10151051  RH  076%=      5-min Rain = 0
KUM1 110638Z 21011KT M02/M05 A3021 RMK A01 T10151052  RH  076%=      5-min Rain = 0
KUM1 110639Z 21011KT M02/M05 A3021 RMK A01 T10161053  RH  076%=      5-min Rain = 0
KUM1 110640Z 22011KT M02/M05 A3021 RMK A01 T10171053  RH  077%=      5-min Rain = 0
KUM1 110641Z 22010KT M02/M05 A3021 RMK A01 T10181053  RH  077%=      5-min Rain = 0
KUM1 110642Z 22010KT M02/M05 A3021 RMK A01 T10191053  RH  077%=      5-min Rain = 0
KUM1 110643Z 22010KT M02/M05 A3021 RMK A01 T10191053  RH  078%=      5-min Rain = 0
KUM1 110644Z 22010KT M02/M05 A3021 RMK A01 T10191053  RH  078%=      5-min Rain = 0
KUM1 110645Z 22010KT M02/M05 A3021 RMK A01 T10201053  RH  078%=      5-min Rain = 0
KUM1 110646Z 22009KT M02/M05 A3021 RMK A01 T10201052  RH  078%=      5-min Rain = 0
KUM1 110647Z 22008KT M02/M05 A3021 RMK A01 T10191052  RH  078%=      5-min Rain = 0
KUM1 110648Z 22008KT M02/M05 A3021 RMK A01 T10201053  RH  078%=      5-min Rain = 0
KUM1 110649Z 22009KT M02/M05 A3021 RMK A01 T10211053  RH  079%=      5-min Rain = 0
KUM1 110650Z 22009KT M02/M05 A3021 RMK A01 T10221053  RH  079%=      5-min Rain = 0
KUM1 110651Z 22010KT M02/M05 A3021 RMK A01 T10231053  RH  080%=      5-min Rain = 0
KUM1 110652Z 22010KT M02/M05 A3021 RMK A01 T10231052  RH  080%=      5-min Rain = 0
KUM1 110653Z 22009KT M02/M05 A3021 RMK A01 T10231052  RH  081%=      5-min Rain = 0
KUM1 110654Z 22009KT M02/M05 A3021 RMK A01 T10231052  RH  081%=      5-min Rain = 0
KUM1 110655Z 22009KT M02/M05 A3021 RMK A01 T10241053  RH  081%=      5-min Rain = 0
KUM1 110656Z 22009KT M03/M05 A3021 RMK A01 T10251053  RH  081%=      5-min Rain = 0
KUM1 110657Z 22009KT M03/M05 A3021 RMK A01 T10251053  RH  081%=      5-min Rain = 0
KUM1 110658Z 23010KT M03/M05 A302 RMK A01 T10261053  RH  082%=      5-min Rain = 0
KUM1 110659Z 23010KT M03/M05 A302 RMK A01 T10251051  RH  082%=      5-min Rain = 0
KUM1 110700Z 22010KT M02/M05 A302 RMK A01 T10241050  RH  082%=      5-min Rain = 0
KUM1 110701Z 22010KT M02/M05 A302 RMK A01 T10231050  RH  082%=      5-min Rain = 0
KUM1 110702Z 22011KT M02/M05 A302 RMK A01 T10231050  RH  082%=      5-min Rain = 0
KUM1 110703Z 22012KT M02/M05 A302 RMK A01 T10211048  RH  082%=      5-min Rain = 0
KUM1 110704Z 23012KT M02/M05 A302 RMK A01 T10191047  RH  081%=      5-min Rain = 0
KUM1 110705Z 23012KT M02/M05 A302 RMK A01 T10181047  RH  081%=      5-min Rain = 0
KUM1 110706Z 23012KT M02/M05 A302 RMK A01 T10181047  RH  080%=      5-min Rain = 0
KUM1 110707Z 23010KT M02/M05 A302 RMK A01 T10181048  RH  080%=      5-min Rain = 0
KUM1 110708Z 23011KT M02/M05 A302 RMK A01 T10181048  RH  080%=      5-min Rain = 0
KUM1 110709Z 23011KT M02/M05 A302 RMK A01 T10181047  RH  080%=      5-min Rain = 0
KUM1 110710Z 23011KT M02/M05 A302 RMK A01 T10171047  RH  080%=      5-min Rain = 0
KUM1 110711Z 23011KT M02/M05 A302 RMK A01 T10171047  RH  080%=      5-min Rain = 0
KUM1 110712Z 22011KT M02/M05 A302 RMK A01 T10171047  RH  080%=      5-min Rain = 0
KUM1 110713Z 23011KT M02/M05 A302 RMK A01 T10171046  RH  080%=      5-min Rain = 0
KUM1 110714Z 23011KT M02/M05 A3019 RMK A01 T10171046  RH  081%=      5-min Rain = 0
KUM1 110715Z 23011KT M02/M05 A3019 RMK A01 T10171046  RH  081%=      5-min Rain = 0
KUM1 110716Z 23011KT M02/M05 A3019 RMK A01 T10161045  RH  081%=      5-min Rain = 0
KUM1 110717Z 23011KT M02/M05 A3019 RMK A01 T10161045  RH  081%=      5-min Rain = 0
KUM1 110718Z 23012KT M02/M05 A3019 RMK A01 T10161045  RH  081%=      5-min Rain = 0
KUM1 110719Z 23011KT M02/M04 A3019 RMK A01 T10161044  RH  081%=      5-min Rain = 0
KUM1 110720Z 23011KT M02/M05 A3019 RMK A01 T10161045  RH  081%=      5-min Rain = 0
KUM1 110721Z 23011KT M02/M04 A3019 RMK A01 T10161044  RH  081%=      5-min Rain = 0
KUM1 110722Z 23011KT M02/M04 A3019 RMK A01 T10161043  RH  082%=      5-min Rain = 0
KUM1 110723Z 23011KT M02/M04 A3019 RMK A01 T10161043  RH  082%=      5-min Rain = 0
KUM1 110724Z 23011KT M02/M04 A3019 RMK A01 T10151042  RH  082%=      5-min Rain = 0
KUM1 110725Z 23011KT M01/M04 A3019 RMK A01 T10141042  RH  082%=      5-min Rain = 0
KUM1 110726Z 23010KT M01/M04 A3019 RMK A01 T10141042  RH  081%=      5-min Rain = 0
KUM1 110727Z 23010KT M01/M04 A3019 RMK A01 T10141042  RH  081%=      5-min Rain = 0
KUM1 110728Z 23010KT M02/M04 A3019 RMK A01 T10151042  RH  082%=      5-min Rain = 0
KUM1 110729Z 23010KT M02/M04 A3019 RMK A01 T10161043  RH  082%=      5-min Rain = 0
KUM1 110730Z 23010KT M02/M04 A3019 RMK A01 T10171043  RH  082%=      5-min Rain = 0
KUM1 110731Z 23011KT M02/M04 A3019 RMK A01 T10171043  RH  082%=      5-min Rain = 0
KUM1 110732Z 23011KT M02/M04 A3019 RMK A01 T10171043  RH  083%=      5-min Rain = 0
KUM1 110733Z 23011KT M02/M04 A3019 RMK A01 T10171042  RH  083%=      5-min Rain = 0
KUM1 110734Z 23011KT M02/M04 A3019 RMK A01 T10171041  RH  083%=      5-min Rain = 0
KUM1 110735Z 23010KT M02/M04 A3019 RMK A01 T10151040  RH  083%=      5-min Rain = 0
KUM1 110736Z 23011KT M01/M04 A3019 RMK A01 T10141039  RH  083%=      5-min Rain = 0
KUM1 110737Z 23009KT M01/M04 A3019 RMK A01 T10141039  RH  083%=      5-min Rain = 0
KUM1 110738Z 23010KT M01/M04 A3019 RMK A01 T10131038  RH  083%=      5-min Rain = 0
KUM1 110739Z 23010KT M01/M04 A3018 RMK A01 T10121037  RH  083%=      5-min Rain = 0
KUM1 110740Z 23010KT M01/M04 A3018 RMK A01 T10111037  RH  083%=      5-min Rain = 0
KUM1 110741Z 23010KT M01/M04 A3018 RMK A01 T10111037  RH  082%=      5-min Rain = 0
KUM1 110742Z 23010KT M01/M04 A3018 RMK A01 T10101037  RH  082%=      5-min Rain = 0
KUM1 110743Z 23011KT M01/M04 A3018 RMK A01 T10101036  RH  082%=      5-min Rain = 0
KUM1 110744Z 23010KT M01/M04 A3018 RMK A01 T10091035  RH  082%=      5-min Rain = 0
KUM1 110745Z 23010KT M01/M03 A3018 RMK A01 T10081034  RH  082%=      5-min Rain = 0
KUM1 110746Z 23010KT M01/M03 A3018 RMK A01 T10061034  RH  082%=      5-min Rain = 0
KUM1 110747Z 23011KT M01/M03 A3018 RMK A01 T10061034  RH  081%=      5-min Rain = 0
KUM1 110748Z 23011KT M01/M03 A3018 RMK A01 T10051034  RH  081%=      5-min Rain = 0
KUM1 110749Z 22011KT M01/M04 A3018 RMK A01 T10051035  RH  081%=      5-min Rain = 0
KUM1 110750Z 23013KT M01/M04 A3017 RMK A01 T10051035  RH  081%=      5-min Rain = 0
KUM1 110751Z 23012KT M01/M03 A3017 RMK A01 T10051034  RH  081%=      5-min Rain = 0
KUM1 110752Z 23013KT M01/M03 A3017 RMK A01 T10051034  RH  081%=      5-min Rain = 0
KUM1 110753Z 23014KT M01/M03 A3017 RMK A01 T10051034  RH  081%=      5-min Rain = 0
KUM1 110754Z 22013KT M00/M03 A3017 RMK A01 T10041033  RH  080%=      5-min Rain = 0
KUM1 110755Z 22013KT M00/M03 A3017 RMK A01 T10031033  RH  080%=      5-min Rain = 0
KUM1 110756Z 22013KT M00/M03 A3017 RMK A01 T10041034  RH  080%=      5-min Rain = 0
KUM1 110757Z 22013KT M01/M04 A3017 RMK A01 T10051035  RH  080%=      5-min Rain = 0
KUM1 110758Z 22014KT M01/M04 A3017 RMK A01 T10061035  RH  080%=      5-min Rain = 0
KUM1 110759Z 22013KT M01/M04 A3017 RMK A01 T10061035  RH  081%=      5-min Rain = 0
KUM1 110800Z 22013KT M01/M04 A3017 RMK A01 T10071035  RH  081%=      5-min Rain = 0
KUM1 110801Z 22012KT M01/M04 A3017 RMK A01 T10071035  RH  081%=      5-min Rain = 0
KUM1 110802Z 22012KT M01/M04 A3017 RMK A01 T10071035  RH  081%=      5-min Rain = 0
KUM1 110803Z 22013KT M01/M04 A3017 RMK A01 T10071035  RH  081%=      5-min Rain = 0
KUM1 110804Z 22012KT M01/M04 A3017 RMK A01 T10071035  RH  081%=      5-min Rain = 0
KUM1 110805Z 22012KT M01/M04 A3018 RMK A01 T10081036  RH  082%=      5-min Rain = 0
KUM1 110806Z 22012KT M01/M04 A3018 RMK A01 T10081035  RH  082%=      5-min Rain = 0
KUM1 110807Z 23012KT M01/M04 A3018 RMK A01 T10081035  RH  082%=      5-min Rain = 0
KUM1 110808Z 23012KT M01/M04 A3017 RMK A01 T10081035  RH  082%=      5-min Rain = 0
KUM1 110809Z 23011KT M01/M04 A3017 RMK A01 T10081035  RH  082%=      5-min Rain = 0
KUM1 110810Z 23010KT M01/M04 A3017 RMK A01 T10081035  RH  082%=      5-min Rain = 0
KUM1 110811Z 23011KT M01/M04 A3017 RMK A01 T10091036  RH  082%=      5-min Rain = 0
KUM1 110812Z 23012KT M01/M04 A3017 RMK A01 T10081035  RH  082%=      5-min Rain = 0
KUM1 110813Z 23012KT M01/M04 A3017 RMK A01 T10081035  RH  082%=      5-min Rain = 0
KUM1 110814Z 23012KT M01/M04 A3017 RMK A01 T10091035  RH  082%=      5-min Rain = 0
KUM1 110815Z 23012KT M01/M03 A3017 RMK A01 T10081034  RH  083%=      5-min Rain = 0
KUM1 110816Z 23012KT M01/M03 A3017 RMK A01 T10071033  RH  083%=      5-min Rain = 0
KUM1 110817Z 23012KT M01/M03 A3017 RMK A01 T10061033  RH  082%=      5-min Rain = 0
KUM1 110818Z 23013KT M01/M03 A3018 RMK A01 T10061033  RH  082%=      5-min Rain = 0
KUM1 110819Z 23012KT M01/M03 A3018 RMK A01 T10061033  RH  082%=      5-min Rain = 0
KUM1 110820Z 23012KT M01/M03 A3018 RMK A01 T10051033  RH  082%=      5-min Rain = 0
KUM1 110821Z 23011KT M01/M03 A3018 RMK A01 T10051032  RH  082%=      5-min Rain = 0
KUM1 110822Z 23011KT M00/M03 A3018 RMK A01 T10041032  RH  081%=      5-min Rain = 0
KUM1 110823Z 22012KT M00/M03 A3018 RMK A01 T10041032  RH  081%=      5-min Rain = 0
KUM1 110824Z 23012KT M00/M03 A3018 RMK A01 T10041032  RH  081%=      5-min Rain = 0
KUM1 110825Z 22013KT M00/M03 A3018 RMK A01 T10041032  RH  081%=      5-min Rain = 0
KUM1 110826Z 23012KT M00/M03 A3018 RMK A01 T10041032  RH  081%=      5-min Rain = 0
KUM1 110827Z 23012KT M01/M03 A3018 RMK A01 T10051033  RH  082%=      5-min Rain = 0
KUM1 110828Z 23012KT M01/M03 A3018 RMK A01 T10051032  RH  082%=      5-min Rain = 0
KUM1 110829Z 22012KT M01/M03 A3018 RMK A01 T10051033  RH  082%=      5-min Rain = 0
KUM1 110830Z 22012KT M01/M03 A3018 RMK A01 T10061033  RH  082%=      5-min Rain = 0
KUM1 110831Z 22012KT M01/M03 A3018 RMK A01 T10061032  RH  082%=      5-min Rain = 0
KUM1 110832Z 23013KT M01/M03 A3018 RMK A01 T10061032  RH  083%=      5-min Rain = 0
KUM1 110833Z 23012KT M01/M03 A3018 RMK A01 T10051031  RH  083%=      5-min Rain = 0
KUM1 110834Z 23012KT M01/M03 A3018 RMK A01 T10051031  RH  083%=      5-min Rain = 0
KUM1 110835Z 23013KT M01/M03 A3018 RMK A01 T10051031  RH  083%=      5-min Rain = 0
KUM1 110836Z 23012KT M01/M03 A3018 RMK A01 T10051031  RH  083%=      5-min Rain = 0
KUM1 110837Z 23012KT M01/M03 A3018 RMK A01 T10051030  RH  083%=      5-min Rain = 0
KUM1 110838Z 23012KT M01/M03 A3018 RMK A01 T10051030  RH  083%=      5-min Rain = 0
KUM1 110839Z 23011KT M01/M03 A3018 RMK A01 T10051030  RH  083%=      5-min Rain = 0
KUM1 110840Z 23012KT M01/M03 A3018 RMK A01 T10051030  RH  083%=      5-min Rain = 0
KUM1 110841Z 23011KT M01/M03 A3018 RMK A01 T10051030  RH  083%=      5-min Rain = 0
KUM1 110842Z 23011KT M01/M03 A3018 RMK A01 T10051030  RH  083%=      5-min Rain = 0
KUM1 110843Z 23011KT M01/M03 A3018 RMK A01 T10061031  RH  083%=      5-min Rain = 0
KUM1 110844Z 23011KT M01/M03 A3018 RMK A01 T10061030  RH  084%=      5-min Rain = 0
KUM1 110845Z 23012KT M01/M03 A3018 RMK A01 T10061030  RH  084%=      5-min Rain = 0
KUM1 110846Z 23011KT M01/M03 A3019 RMK A01 T10051029  RH  084%=      5-min Rain = 0
KUM1 110847Z 23011KT M00/M03 A3019 RMK A01 T10041028  RH  084%=      5-min Rain = 0
KUM1 110848Z 23011KT M00/M03 A3019 RMK A01 T10041029  RH  083%=      5-min Rain = 0
KUM1 110849Z 23010KT M00/M03 A3019 RMK A01 T10041029  RH  083%=      5-min Rain = 0
KUM1 110850Z 23010KT M01/M03 A3019 RMK A01 T10051030  RH  083%=      5-min Rain = 0
KUM1 110851Z 23011KT M01/M03 A3018 RMK A01 T10061031  RH  083%=      5-min Rain = 0
KUM1 110852Z 23011KT M01/M03 A3018 RMK A01 T10061030  RH  084%=      5-min Rain = 0
KUM1 110853Z 23011KT M01/M03 A3018 RMK A01 T10061030  RH  084%=      5-min Rain = 0
KUM1 110854Z 23010KT M01/M03 A3018 RMK A01 T10061030  RH  084%=      5-min Rain = 0
KUM1 110855Z 23011KT M01/M03 A3018 RMK A01 T10061031  RH  084%=      5-min Rain = 0
KUM1 110856Z 23010KT M01/M03 A3018 RMK A01 T10071031  RH  084%=      5-min Rain = 0
KUM1 110857Z 23010KT M01/M03 A3018 RMK A01 T10071031  RH  084%=      5-min Rain = 0
KUM1 110858Z 23012KT M01/M03 A3018 RMK A01 T10071031  RH  084%=      5-min Rain = 0
KUM1 110859Z 23012KT M01/M03 A3018 RMK A01 T10071031  RH  084%=      5-min Rain = 0
KUM1 110900Z 23012KT M01/M03 A3018 RMK A01 T10081031  RH  084%=      5-min Rain = 0
KUM1 110901Z 23012KT M01/M03 A3018 RMK A01 T10081031  RH  084%=      5-min Rain = 0
KUM1 110902Z 23011KT M01/M03 A3018 RMK A01 T10071031  RH  084%=      5-min Rain = 0
KUM1 110903Z 23012KT M01/M03 A3018 RMK A01 T10081031  RH  084%=      5-min Rain = 0
KUM1 110904Z 23012KT M01/M03 A3018 RMK A01 T10081031  RH  084%=      5-min Rain = 0
KUM1 110905Z 23011KT M01/M03 A3018 RMK A01 T10091032  RH  084%=      5-min Rain = 0
KUM1 110906Z 23010KT M01/M03 A3018 RMK A01 T10091032  RH  085%=      5-min Rain = 0
KUM1 110907Z 23010KT M01/M03 A3018 RMK A01 T10101032  RH  085%=      5-min Rain = 0
KUM1 110908Z 23011KT M01/M03 A3018 RMK A01 T10111033  RH  085%=      5-min Rain = 0
KUM1 110909Z 23010KT M01/M03 A3018 RMK A01 T10111033  RH  085%=      5-min Rain = 0
KUM1 110910Z 23009KT M01/M03 A3018 RMK A01 T10111033  RH  085%=      5-min Rain = 0
KUM1 110911Z 23009KT M01/M03 A3018 RMK A01 T10121033  RH  085%=      5-min Rain = 0
KUM1 110912Z 23009KT M01/M03 A3018 RMK A01 T10131034  RH  086%=      5-min Rain = 0
KUM1 110913Z 23009KT M01/M04 A3018 RMK A01 T10141035  RH  086%=      5-min Rain = 0
KUM1 110914Z 23008KT M02/M04 A3018 RMK A01 T10151035  RH  086%=      5-min Rain = 0
KUM1 110915Z 23007KT M02/M04 A3018 RMK A01 T10161035  RH  087%=      5-min Rain = 0
KUM1 110916Z 23007KT M02/M04 A3018 RMK A01 T10161036  RH  087%=      5-min Rain = 0
KUM1 110917Z 23007KT M02/M04 A3018 RMK A01 T10171036  RH  087%=      5-min Rain = 0
KUM1 110918Z 23007KT M02/M04 A3018 RMK A01 T10171036  RH  087%=      5-min Rain = 0
KUM1 110919Z 23008KT M02/M04 A3018 RMK A01 T10181036  RH  087%=      5-min Rain = 0
KUM1 110920Z 23009KT M02/M04 A3018 RMK A01 T10181036  RH  087%=      5-min Rain = 0
KUM1 110921Z 24009KT M02/M04 A3018 RMK A01 T10181037  RH  087%=      5-min Rain = 0
KUM1 110922Z 24008KT M02/M04 A3018 RMK A01 T10191037  RH  088%=      5-min Rain = 0
KUM1 110923Z 24008KT M02/M04 A3018 RMK A01 T10201038  RH  087%=      5-min Rain = 0
KUM1 110924Z 24008KT M02/M04 A3018 RMK A01 T10211039  RH  087%=      5-min Rain = 0
KUM1 110925Z 24007KT M02/M04 A3018 RMK A01 T10211038  RH  088%=      5-min Rain = 0
KUM1 110926Z 24008KT M02/M04 A3018 RMK A01 T10211039  RH  088%=      5-min Rain = 0
KUM1 110927Z 24009KT M02/M04 A3018 RMK A01 T10221039  RH  088%=      5-min Rain = 0
KUM1 110928Z 24008KT M02/M04 A3018 RMK A01 T10231040  RH  088%=      5-min Rain = 0
KUM1 110929Z 24009KT M02/M04 A3018 RMK A01 T10231040  RH  088%=      5-min Rain = 0
KUM1 110930Z 24009KT M02/M04 A3018 RMK A01 T10241040  RH  089%=      5-min Rain = 0
KUM1 110931Z 23008KT M02/M04 A3018 RMK A01 T10231039  RH  089%=      5-min Rain = 0
KUM1 110932Z 23008KT M02/M04 A3018 RMK A01 T10231039  RH  089%=      5-min Rain = 0
KUM1 110933Z 23008KT M02/M04 A3018 RMK A01 T10231038  RH  089%=      5-min Rain = 0
KUM1 110934Z 23007KT M02/M04 A3018 RMK A01 T10231039  RH  089%=      5-min Rain = 0
KUM1 110935Z 23007KT M02/M04 A3018 RMK A01 T10231039  RH  089%=      5-min Rain = 0
KUM1 110936Z 23007KT M02/M04 A3018 RMK A01 T10221038  RH  089%=      5-min Rain = 0
KUM1 110937Z 23007KT M02/M04 A3018 RMK A01 T10221038  RH  089%=      5-min Rain = 0
KUM1 110938Z 22009KT M02/M04 A3018 RMK A01 T10221037  RH  089%=      5-min Rain = 0
KUM1 110939Z 22009KT M02/M03 A3018 RMK A01 T10201034  RH  090%=      5-min Rain = 0
KUM1 110940Z 22009KT M02/M03 A3018 RMK A01 T10181032  RH  090%=      5-min Rain = 0
KUM1 110941Z 22009KT M02/M03 A3018 RMK A01 T10171032  RH  089%=      5-min Rain = 0
KUM1 110942Z 22009KT M02/M03 A3018 RMK A01 T10171033  RH  089%=      5-min Rain = 0
KUM1 110943Z 22009KT M02/M03 A3017 RMK A01 T10161033  RH  089%=      5-min Rain = 0
KUM1 110944Z 22010KT M02/M03 A3017 RMK A01 T10161033  RH  088%=      5-min Rain = 0
KUM1 110945Z 21009KT M02/M03 A3017 RMK A01 T10161034  RH  088%=      5-min Rain = 0
KUM1 110946Z 21009KT M02/M03 A3017 RMK A01 T10171034  RH  088%=      5-min Rain = 0
KUM1 110947Z 22010KT M02/M04 A3017 RMK A01 T10181035  RH  088%=      5-min Rain = 0
KUM1 110948Z 22010KT M02/M04 A3017 RMK A01 T10181035  RH  088%=      5-min Rain = 0
KUM1 110949Z 22010KT M02/M03 A3017 RMK A01 T10171034  RH  088%=      5-min Rain = 0
KUM1 110950Z 22010KT M02/M03 A3017 RMK A01 T10171034  RH  088%=      5-min Rain = 0
KUM1 110951Z 22010KT M02/M03 A3018 RMK A01 T10171034  RH  088%=      5-min Rain = 0
KUM1 110952Z 22010KT M02/M04 A3018 RMK A01 T10181035  RH  088%=      5-min Rain = 0
KUM1 110953Z 22009KT M02/M03 A3018 RMK A01 T10181034  RH  088%=      5-min Rain = 0
KUM1 110954Z 22010KT M02/M04 A3018 RMK A01 T10181035  RH  088%=      5-min Rain = 0
KUM1 110955Z 21010KT M02/M04 A3017 RMK A01 T10191035  RH  088%=      5-min Rain = 0
KUM1 110956Z 21009KT M02/M04 A3017 RMK A01 T10191036  RH  089%=      5-min Rain = 0
KUM1 110957Z 21010KT M02/M04 A3017 RMK A01 T10191035  RH  089%=      5-min Rain = 0
KUM1 110958Z 21010KT M02/M04 A3017 RMK A01 T10201035  RH  089%=      5-min Rain = 0
KUM1 110959Z 21010KT M02/M04 A3017 RMK A01 T10201036  RH  089%=      5-min Rain = 0
KUM1 111000Z 22010KT M02/M04 A3017 RMK A01 T10201036  RH  089%=      5-min Rain = 0
KUM1 111001Z 22010KT M02/M04 A3017 RMK A01 T10201036  RH  089%=      5-min Rain = 0
KUM1 111002Z 22009KT M02/M04 A3017 RMK A01 T10211036  RH  089%=      5-min Rain = 0
KUM1 111003Z 22009KT M02/M04 A3017 RMK A01 T10211037  RH  089%=      5-min Rain = 0
KUM1 111004Z 22009KT M02/M04 A3017 RMK A01 T10221037  RH  089%=      5-min Rain = 0
KUM1 111005Z 22009KT M02/M04 A3017 RMK A01 T10231038  RH  089%=      5-min Rain = 0
KUM1 111006Z 22009KT M02/M04 A3017 RMK A01 T10241039  RH  089%=      5-min Rain = 0
KUM1 111007Z 22009KT M02/M04 A3017 RMK A01 T10241039  RH  090%=      5-min Rain = 0
KUM1 111008Z 22009KT M03/M04 A3017 RMK A01 T10251039  RH  090%=      5-min Rain = 0
KUM1 111009Z 22010KT M03/M04 A3017 RMK A01 T10261040  RH  090%=      5-min Rain = 0
KUM1 111010Z 22010KT M03/M04 A3017 RMK A01 T10271041  RH  090%=      5-min Rain = 0
KUM1 111011Z 22010KT M03/M04 A3017 RMK A01 T10281041  RH  091%=      5-min Rain = 0
KUM1 111012Z 22010KT M03/M04 A3017 RMK A01 T10281040  RH  091%=      5-min Rain = 0
KUM1 111013Z 22010KT M03/M04 A3016 RMK A01 T10281041  RH  091%=      5-min Rain = 0
KUM1 111014Z 22010KT M03/M04 A3016 RMK A01 T10291041  RH  091%=      5-min Rain = 0
KUM1 111015Z 22009KT M03/M04 A3016 RMK A01 T10291041  RH  091%=      5-min Rain = 0
KUM1 111016Z 22009KT M03/M04 A3016 RMK A01 T10301042  RH  092%=      5-min Rain = 0
KUM1 111017Z 22009KT M03/M04 A3016 RMK A01 T10301042  RH  092%=      5-min Rain = 0
KUM1 111018Z 22009KT M03/M04 A3016 RMK A01 T10301041  RH  092%=      5-min Rain = 0
KUM1 111019Z 22009KT M03/M04 A3016 RMK A01 T10301041  RH  092%=      5-min Rain = 0
KUM1 111020Z 22008KT M03/M04 A3016 RMK A01 T10301041  RH  092%=      5-min Rain = 0
KUM1 111021Z 22008KT M03/M04 A3016 RMK A01 T10301040  RH  093%=      5-min Rain = 0
KUM1 111022Z 22008KT M03/M04 A3016 RMK A01 T10291039  RH  093%=      5-min Rain = 0
KUM1 111023Z 22009KT M03/M04 A3016 RMK A01 T10291039  RH  093%=      5-min Rain = 0
KUM1 111024Z 22009KT M03/M04 A3016 RMK A01 T10301041  RH  092%=      5-min Rain = 0
KUM1 111025Z 22009KT M03/M04 A3016 RMK A01 T10311042  RH  092%=      5-min Rain = 0
KUM1 111026Z 22009KT M03/M04 A3016 RMK A01 T10301041  RH  092%=      5-min Rain = 0
KUM1 111027Z 22009KT M03/M04 A3016 RMK A01 T10301041  RH  093%=      5-min Rain = 0
KUM1 111028Z 22009KT M03/M04 A3016 RMK A01 T10301040  RH  093%=      5-min Rain = 0
KUM1 111029Z 22009KT M03/M04 A3016 RMK A01 T10301041  RH  093%=      5-min Rain = 0
KUM1 111030Z 22009KT M03/M04 A3016 RMK A01 T10311041  RH  093%=      5-min Rain = 0
KUM1 111031Z 22009KT M03/M04 A3016 RMK A01 T10311041  RH  093%=      5-min Rain = 0
KUM1 111032Z 22009KT M03/M04 A3015 RMK A01 T10311041  RH  093%=      5-min Rain = 0
KUM1 111033Z 22009KT M03/M04 A3015 RMK A01 T10311041  RH  093%=      5-min Rain = 0
KUM1 111034Z 22009KT M03/M04 A3015 RMK A01 T10311041  RH  093%=      5-min Rain = 0
KUM1 111035Z 22010KT M03/M04 A3015 RMK A01 T10301040  RH  093%=      5-min Rain = 0
KUM1 111036Z 22009KT M03/M04 A3015 RMK A01 T10301039  RH  094%=      5-min Rain = 0
KUM1 111037Z 22009KT M03/M04 A3015 RMK A01 T10301039  RH  093%=      5-min Rain = 0
KUM1 111038Z 22009KT M03/M04 A3015 RMK A01 T10301040  RH  093%=      5-min Rain = 0
KUM1 111039Z 22009KT M03/M04 A3015 RMK A01 T10311040  RH  093%=      5-min Rain = 0
KUM1 111040Z 23008KT M03/M04 A3015 RMK A01 T10301039  RH  094%=      5-min Rain = 0
KUM1 111041Z 22008KT M03/M04 A3015 RMK A01 T10301039  RH  094%=      5-min Rain = 0
KUM1 111042Z 23008KT M03/M04 A3015 RMK A01 T10301039  RH  094%=      5-min Rain = 0
KUM1 111043Z 23008KT M03/M04 A3015 RMK A01 T10301039  RH  094%=      5-min Rain = 0
KUM1 111044Z 23009KT M03/M04 A3015 RMK A01 T10291038  RH  094%=      5-min Rain = 0
KUM1 111045Z 23010KT M03/M04 A3015 RMK A01 T10271035  RH  094%=      5-min Rain = 0
KUM1 111046Z 23010KT M03/M03 A3014 RMK A01 T10251032  RH  094%=      5-min Rain = 0
KUM1 111047Z 22011KT M02/M03 A3014 RMK A01 T10221029  RH  095%=      5-min Rain = 0
KUM1 111048Z 22010KT M02/M03 A3014 RMK A01 T10201028  RH  094%=      5-min Rain = 0
KUM1 111049Z 22011KT M02/M03 A3014 RMK A01 T10221032  RH  093%=      5-min Rain = 0
KUM1 111050Z 22012KT M02/M03 A3014 RMK A01 T10231033  RH  093%=      5-min Rain = 0
KUM1 111051Z 22012KT M02/M03 A3014 RMK A01 T10221032  RH  093%=      5-min Rain = 0
KUM1 111052Z 22012KT M02/M03 A3014 RMK A01 T10211030  RH  093%=      5-min Rain = 0
KUM1 111053Z 22011KT M02/M03 A3014 RMK A01 T10181027  RH  094%=      5-min Rain = 0
KUM1 111054Z 22012KT M02/M03 A3014 RMK A01 T10171026  RH  094%=      5-min Rain = 0
KUM1 111055Z 22012KT M02/M03 A3013 RMK A01 T10171025  RH  094%=      5-min Rain = 0
KUM1 111056Z 22012KT M02/M03 A3013 RMK A01 T10161025  RH  093%=      5-min Rain = 0
KUM1 111057Z 22012KT M02/M03 A3013 RMK A01 T10161025  RH  093%=      5-min Rain = 0
KUM1 111058Z 22011KT M02/M03 A3013 RMK A01 T10151025  RH  093%=      5-min Rain = 0
KUM1 111059Z 22011KT M02/M03 A3013 RMK A01 T10151025  RH  093%=      5-min Rain = 0
KUM1 111100Z 22011KT M02/M03 A3013 RMK A01 T10151025  RH  093%=      5-min Rain = 0
KUM1 111101Z 22010KT M02/M03 A3013 RMK A01 T10151025  RH  093%=      5-min Rain = 0
KUM1 111102Z 22011KT M02/M03 A3013 RMK A01 T10151025  RH  093%=      5-min Rain = 0
KUM1 111103Z 22011KT M02/M02 A3013 RMK A01 T10151024  RH  093%=      5-min Rain = 0
KUM1 111104Z 22011KT M01/M02 A3013 RMK A01 T10141024  RH  093%=      5-min Rain = 0
KUM1 111105Z 22011KT M01/M02 A3013 RMK A01 T10141023  RH  093%=      5-min Rain = 0
KUM1 111106Z 22012KT M01/M02 A3013 RMK A01 T10141023  RH  093%=      5-min Rain = 0
KUM1 111107Z 22011KT M01/M02 A3013 RMK A01 T10131022  RH  093%=      5-min Rain = 0
KUM1 111108Z 22012KT M01/M02 A3013 RMK A01 T10131022  RH  093%=      5-min Rain = 0
KUM1 111109Z 22012KT M01/M02 A3013 RMK A01 T10131022  RH  093%=      5-min Rain = 0
KUM1 111110Z 21012KT M01/M02 A3013 RMK A01 T10121021  RH  093%=      5-min Rain = 0
KUM1 111111Z 21012KT M01/M02 A3013 RMK A01 T10121021  RH  093%=      5-min Rain = 0
KUM1 111112Z 21012KT M01/M02 A3013 RMK A01 T10111021  RH  093%=      5-min Rain = 0
KUM1 111113Z 21012KT M01/M02 A3013 RMK A01 T10111021  RH  093%=      5-min Rain = 0
KUM1 111114Z 21013KT M01/M02 A3013 RMK A01 T10111021  RH  093%=      5-min Rain = 0
KUM1 111115Z 21013KT M01/M02 A3013 RMK A01 T10111021  RH  093%=      5-min Rain = 0
KUM1 111116Z 21013KT M01/M02 A3013 RMK A01 T10111021  RH  093%=      5-min Rain = 0
KUM1 111117Z 21014KT M01/M02 A3013 RMK A01 T10111021  RH  093%=      5-min Rain = 0
KUM1 111118Z 21014KT M01/M02 A3013 RMK A01 T10111021  RH  093%=      5-min Rain = 0
KUM1 111119Z 21013KT M01/M02 A3013 RMK A01 T10111021  RH  093%=      5-min Rain = 0
KUM1 111120Z 21014KT M01/M02 A3013 RMK A01 T10121021  RH  093%=      5-min Rain = 0
KUM1 111121Z 21013KT M01/M02 A3013 RMK A01 T10121021  RH  093%=      5-min Rain = 0
KUM1 111122Z 21013KT M01/M02 A3013 RMK A01 T10121021  RH  093%=      5-min Rain = 0
KUM1 111123Z 21013KT M01/M02 A3013 RMK A01 T10121021  RH  094%=      5-min Rain = 0
KUM1 111124Z 21014KT M01/M02 A3013 RMK A01 T10111020  RH  094%=      5-min Rain = 0
KUM1 111125Z 21013KT M01/M02 A3013 RMK A01 T10111019  RH  094%=      5-min Rain = 0
KUM1 111126Z 21014KT M01/M02 A3013 RMK A01 T10101019  RH  094%=      5-min Rain = 0
KUM1 111127Z 21013KT M01/M02 A3013 RMK A01 T10091018  RH  094%=      5-min Rain = 0
KUM1 111128Z 21013KT M01/M02 A3013 RMK A01 T10081017  RH  094%=      5-min Rain = 0
KUM1 111129Z 21013KT M01/M02 A3013 RMK A01 T10081017  RH  094%=      5-min Rain = 0
KUM1 111130Z 21012KT M01/M02 A3013 RMK A01 T10081018  RH  093%=      5-min Rain = 0
KUM1 111131Z 21014KT M01/M02 A3013 RMK A01 T10081018  RH  093%=      5-min Rain = 0
KUM1 111132Z 21014KT M01/M02 A3013 RMK A01 T10071017  RH  094%=      5-min Rain = 0
KUM1 111133Z 21014KT M01/M02 A3013 RMK A01 T10071016  RH  094%=      5-min Rain = 0
KUM1 111134Z 21015KT M01/M02 A3013 RMK A01 T10071017  RH  093%=      5-min Rain = 0
KUM1 111135Z 21015KT M01/M02 A3013 RMK A01 T10071017  RH  093%=      5-min Rain = 0
KUM1 111136Z 21016KT M01/M02 A3013 RMK A01 T10071017  RH  093%=      5-min Rain = 0
KUM1 111137Z 21015KT M01/M02 A3013 RMK A01 T10061016  RH  093%=      5-min Rain = 0
KUM1 111138Z 21015KT M01/M02 A3013 RMK A01 T10061016  RH  093%=      5-min Rain = 0
KUM1 111139Z 21015KT M01/M02 A3013 RMK A01 T10061015  RH  093%=      5-min Rain = 0
KUM1 111140Z 21015KT M01/M02 A3013 RMK A01 T10051015  RH  094%=      5-min Rain = 0
KUM1 111141Z 21016KT M01/M01 A3013 RMK A01 T10051014  RH  093%=      5-min Rain = 0
KUM1 111142Z 21015KT M01/M02 A3013 RMK A01 T10051015  RH  093%=      5-min Rain = 0
KUM1 111143Z 21015KT M01/M02 A3013 RMK A01 T10051015  RH  093%=      5-min Rain = 0
KUM1 111144Z 21015KT M01/M02 A3013 RMK A01 T10051015  RH  093%=      5-min Rain = 0
KUM1 111145Z 21015KT M01/M02 A3013 RMK A01 T10051015  RH  094%=      5-min Rain = 0
KUM1 111146Z 21016KT M01/M01 A3013 RMK A01 T10051014  RH  094%=      5-min Rain = 0
KUM1 111147Z 21015KT M01/M01 A3013 RMK A01 T10051014  RH  094%=      5-min Rain = 0
KUM1 111148Z 21015KT M01/M01 A3013 RMK A01 T10051014  RH  094%=      5-min Rain = 0
KUM1 111149Z 22016KT M00/M01 A3013 RMK A01 T10041013  RH  094%=      5-min Rain = 0
KUM1 111150Z 21014KT M00/M01 A3013 RMK A01 T10041012  RH  094%=      5-min Rain = 0
KUM1 111151Z 22015KT M00/M01 A3013 RMK A01 T10031012  RH  094%=      5-min Rain = 0
KUM1 111152Z 22013KT M00/M01 A3013 RMK A01 T10031011  RH  094%=      5-min Rain = 0
KUM1 111153Z 22014KT M00/M01 A3013 RMK A01 T10021011  RH  094%=      5-min Rain = 0
KUM1 111154Z 22013KT M00/M01 A3013 RMK A01 T10021011  RH  094%=      5-min Rain = 0
KUM1 111155Z 22014KT M00/M01 A3013 RMK A01 T10021011  RH  094%=      5-min Rain = 0
KUM1 111156Z 22012KT M00/M01 A3013 RMK A01 T10011010  RH  094%=      5-min Rain = 0
KUM1 111157Z 22013KT M00/M01 A3013 RMK A01 T10011010  RH  094%=      5-min Rain = 0
KUM1 111158Z 22013KT M00/M01 A3013 RMK A01 T10011010  RH  093%=      5-min Rain = 0
KUM1 111159Z 22012KT 00/01 A3013 RMK A01 T00-00-10  RH  093%=      5-min Rain = 0
KUM1 111200Z 22013KT 00/01 A3013 RMK A01 T00-00-10  RH  093%=      5-min Rain = 0
KUM1 111201Z 22012KT 00/01 A3013 RMK A01 T000000-9  RH  094%=      5-min Rain = 0
KUM1 111202Z 22012KT 00/M01 A3013 RMK A01 T00011008  RH  094%=      5-min Rain = 0
KUM1 111203Z 22012KT 00/M01 A3013 RMK A01 T00021007  RH  094%=      5-min Rain = 0
KUM1 111204Z 22013KT 00/M01 A3013 RMK A01 T00021007  RH  094%=      5-min Rain = 0
KUM1 111205Z 22012KT 00/M01 A3013 RMK A01 T00031006  RH  094%=      5-min Rain = 0
KUM1 111206Z 23012KT 01/M00 A3013 RMK A01 T00051004  RH  094%=      5-min Rain = 0
KUM1 111207Z 22012KT 01/M00 A3013 RMK A01 T00051004  RH  093%=      5-min Rain = 0
KUM1 111208Z 22014KT 01/M00 A3013 RMK A01 T00061004  RH  093%=      5-min Rain = 0
KUM1 111209Z 22013KT 01/M00 A3013 RMK A01 T00061004  RH  093%=      5-min Rain = 0
KUM1 111210Z 22013KT 01/M00 A3013 RMK A01 T00071004  RH  093%=      5-min Rain = 0
KUM1 111211Z 22012KT 01/M00 A3013 RMK A01 T00071004  RH  092%=      5-min Rain = 0
KUM1 111212Z 22014KT 01/M00 A3013 RMK A01 T00071004  RH  092%=      5-min Rain = 0
KUM1 111213Z 22013KT 01/M00 A3013 RMK A01 T00071004  RH  092%=      5-min Rain = 0
KUM1 111214Z 22013KT 01/M00 A3013 RMK A01 T00071004  RH  092%=      5-min Rain = 0
KUM1 111215Z 22014KT 01/M00 A3013 RMK A01 T00081003  RH  092%=      5-min Rain = 0
KUM1 111216Z 22014KT 01/M00 A3012 RMK A01 T00081003  RH  092%=      5-min Rain = 0
KUM1 111217Z 22014KT 01/M00 A3012 RMK A01 T00081003  RH  092%=      5-min Rain = 0
KUM1 111218Z 22014KT 01/M00 A3012 RMK A01 T00081003  RH  092%=      5-min Rain = 0
KUM1 111219Z 22012KT 01/M00 A3012 RMK A01 T00091002  RH  092%=      5-min Rain = 0
KUM1 111220Z 22014KT 01/M00 A3012 RMK A01 T00091003  RH  092%=      5-min Rain = 0
KUM1 111221Z 22013KT 01/M00 A3012 RMK A01 T00091003  RH  092%=      5-min Rain = 0
KUM1 111222Z 22012KT 01/M00 A3012 RMK A01 T00091003  RH  092%=      5-min Rain = 0
KUM1 111223Z 22014KT 01/M00 A3012 RMK A01 T00091003  RH  092%=      5-min Rain = 0
KUM1 111224Z 22014KT 01/M00 A3012 RMK A01 T00091003  RH  092%=      5-min Rain = 0
KUM1 111225Z 22013KT 01/M00 A3012 RMK A01 T00101002  RH  092%=      5-min Rain = 0
KUM1 111226Z 22014KT 01/M00 A3012 RMK A01 T00101002  RH  092%=      5-min Rain = 0
KUM1 111227Z 22015KT 01/M00 A3012 RMK A01 T00101001  RH  092%=      5-min Rain = 0
KUM1 111228Z 22016KT 01/M00 A3012 RMK A01 T00111001  RH  092%=      5-min Rain = 0
KUM1 111229Z 22017KT 01/00 A3012 RMK A01 T001200-0  RH  092%=      5-min Rain = 0
KUM1 111230Z 22016KT 01/00 A3012 RMK A01 T00120000  RH  092%=      5-min Rain = 0
KUM1 111231Z 22015KT 01/00 A3012 RMK A01 T00130000  RH  092%=      5-min Rain = 0
KUM1 111232Z 22015KT 01/00 A3012 RMK A01 T00130000  RH  091%=      5-min Rain = 0
KUM1 111233Z 22015KT 01/00 A3012 RMK A01 T001300-0  RH  091%=      5-min Rain = 0
KUM1 111234Z 22015KT 01/00 A3012 RMK A01 T00130000  RH  091%=      5-min Rain = 0
KUM1 111235Z 22014KT 01/00 A3012 RMK A01 T00130000  RH  091%=      5-min Rain = 0
KUM1 111236Z 22016KT 01/00 A3012 RMK A01 T001300-0  RH  091%=      5-min Rain = 0
KUM1 111237Z 22016KT 01/00 A3012 RMK A01 T00140000  RH  091%=      5-min Rain = 0
KUM1 111238Z 22014KT 01/00 A3012 RMK A01 T00140000  RH  091%=      5-min Rain = 0
KUM1 111239Z 22016KT 01/00 A3012 RMK A01 T00140000  RH  091%=      5-min Rain = 0
KUM1 111240Z 22015KT 01/00 A3012 RMK A01 T00140000  RH  091%=      5-min Rain = 0
KUM1 111241Z 23016KT 02/00 A3012 RMK A01 T00150001  RH  091%=      5-min Rain = 0
KUM1 111242Z 22015KT 02/00 A3012 RMK A01 T00160002  RH  090%=      5-min Rain = 0
KUM1 111243Z 22015KT 02/00 A3012 RMK A01 T00160002  RH  090%=      5-min Rain = 0
KUM1 111244Z 22015KT 02/00 A3012 RMK A01 T00160001  RH  090%=      5-min Rain = 0
KUM1 111245Z 22016KT 02/00 A3012 RMK A01 T00160001  RH  090%=      5-min Rain = 0
KUM1 111246Z 22016KT 02/00 A3012 RMK A01 T00170002  RH  089%=      5-min Rain = 0
KUM1 111247Z 22015KT 02/00 A3012 RMK A01 T00180002  RH  089%=      5-min Rain = 0
KUM1 111248Z 22015KT 02/00 A3012 RMK A01 T00180002  RH  089%=      5-min Rain = 0
KUM1 111249Z 22016KT 02/00 A3012 RMK A01 T00180002  RH  089%=      5-min Rain = 0
KUM1 111250Z 22014KT 02/00 A3012 RMK A01 T00170001  RH  089%=      5-min Rain = 0
KUM1 111251Z 22014KT 02/00 A3012 RMK A01 T00170001  RH  089%=      5-min Rain = 0
KUM1 111252Z 22014KT 02/00 A3012 RMK A01 T00170001  RH  089%=      5-min Rain = 0
KUM1 111253Z 22015KT 02/00 A3012 RMK A01 T00170001  RH  089%=      5-min Rain = 0
KUM1 111254Z 22015KT 02/00 A3012 RMK A01 T00170002  RH  089%=      5-min Rain = 0
KUM1 111255Z 22014KT 02/00 A3012 RMK A01 T00180002  RH  089%=      5-min Rain = 0
KUM1 111256Z 22013KT 02/00 A3012 RMK A01 T00170001  RH  089%=      5-min Rain = 0
KUM1 111257Z 22013KT 02/00 A3012 RMK A01 T00180001  RH  089%=      5-min Rain = 0
KUM1 111258Z 22013KT 02/00 A3012 RMK A01 T00170001  RH  089%=      5-min Rain = 0
KUM1 111259Z 22013KT 02/00 A3012 RMK A01 T00170001  RH  089%=      5-min Rain = 0
KUM1 111300Z 22014KT 02/00 A3012 RMK A01 T00170001  RH  090%=      5-min Rain = 0
KUM1 111301Z 22013KT 02/00 A3012 RMK A01 T00170001  RH  090%=      5-min Rain = 0
KUM1 111302Z 22014KT 02/00 A3012 RMK A01 T00160001  RH  090%=      5-min Rain = 0
KUM1 111303Z 22014G19KT 02/00 A3012 RMK A01 T00160001  RH  090%=      5-min Rain = 0
KUM1 111304Z 22016KT 02/00 A3012 RMK A01 T00160001  RH  090%=      5-min Rain = 0
KUM1 111305Z 22015KT 02/00 A3012 RMK A01 T00160001  RH  090%=      5-min Rain = 0
KUM1 111306Z 22014KT 02/00 A3012 RMK A01 T00160001  RH  090%=      5-min Rain = 0
KUM1 111307Z 22015KT 02/00 A3012 RMK A01 T00160001  RH  090%=      5-min Rain = 0
KUM1 111308Z 22015KT 02/00 A3012 RMK A01 T00160002  RH  090%=      5-min Rain = 0
KUM1 111309Z 22016KT 02/00 A3012 RMK A01 T00170002  RH  090%=      5-min Rain = 0
KUM1 111310Z 22015KT 02/00 A3012 RMK A01 T00170002  RH  090%=      5-min Rain = 0
KUM1 111311Z 22016KT 02/00 A3012 RMK A01 T00170002  RH  090%=      5-min Rain = 0
KUM1 111312Z 22015KT 02/00 A3012 RMK A01 T00170002  RH  090%=      5-min Rain = 0
KUM1 111313Z 22017KT 02/00 A3011 RMK A01 T00170002  RH  090%=      5-min Rain = 0
KUM1 111314Z 22017KT 02/00 A3011 RMK A01 T00170002  RH  090%=      5-min Rain = 0
KUM1 111315Z 22016KT 02/00 A3011 RMK A01 T00170002  RH  090%=      5-min Rain = 0
KUM1 111316Z 22016KT 02/00 A3011 RMK A01 T00170002  RH  090%=      5-min Rain = 0
KUM1 111317Z 21018KT 02/00 A3011 RMK A01 T00170002  RH  090%=      5-min Rain = 0
KUM1 111318Z 22018KT 02/00 A3011 RMK A01 T00180003  RH  090%=      5-min Rain = 0
KUM1 111319Z 22018KT 02/00 A3011 RMK A01 T00180003  RH  089%=      5-min Rain = 0
KUM1 111320Z 22016KT 02/00 A3011 RMK A01 T00180002  RH  089%=      5-min Rain = 0
KUM1 111321Z 22016KT 02/00 A3011 RMK A01 T00180002  RH  089%=      5-min Rain = 0
KUM1 111322Z 22016KT 02/00 A3011 RMK A01 T00180002  RH  089%=      5-min Rain = 0
KUM1 111323Z 22017KT 02/00 A3011 RMK A01 T00180003  RH  089%=      5-min Rain = 0
KUM1 111324Z 21015KT 02/00 A3011 RMK A01 T00180003  RH  089%=      5-min Rain = 0
KUM1 111325Z 22015KT 02/00 A3011 RMK A01 T00180002  RH  089%=      5-min Rain = 0
KUM1 111326Z 21015KT 02/00 A3012 RMK A01 T00180002  RH  089%=      5-min Rain = 0
KUM1 111327Z 22016KT 02/00 A3012 RMK A01 T00190003  RH  089%=      5-min Rain = 0
KUM1 111328Z 21015KT 02/00 A3012 RMK A01 T00180002  RH  089%=      5-min Rain = 0
KUM1 111329Z 22016KT 02/00 A3012 RMK A01 T00180002  RH  089%=      5-min Rain = 0
KUM1 111330Z 22013KT 02/00 A3012 RMK A01 T00180002  RH  089%=      5-min Rain = 0
KUM1 111331Z 22015KT 02/00 A3012 RMK A01 T00190002  RH  089%=      5-min Rain = 0
KUM1 111332Z 22014KT 02/00 A3012 RMK A01 T00190003  RH  089%=      5-min Rain = 0
KUM1 111333Z 22015KT 02/00 A3012 RMK A01 T00190003  RH  089%=      5-min Rain = 0
KUM1 111334Z 22015KT 02/00 A3012 RMK A01 T00190003  RH  089%=      5-min Rain = 0
KUM1 111335Z 22014KT 02/00 A3012 RMK A01 T00200003  RH  089%=      5-min Rain = 0
KUM1 111336Z 22012KT 02/00 A3012 RMK A01 T00200003  RH  089%=      5-min Rain = 0
KUM1 111337Z 22014KT 02/00 A3012 RMK A01 T00200003  RH  089%=      5-min Rain = 0
KUM1 111338Z 23012KT 02/00 A3012 RMK A01 T00200003  RH  088%=      5-min Rain = 0
KUM1 111339Z 23011KT 02/00 A3012 RMK A01 T00200003  RH  088%=      5-min Rain = 0
KUM1 111340Z 23011KT 02/00 A3012 RMK A01 T00200003  RH  088%=      5-min Rain = 0
KUM1 111341Z 23012KT 02/00 A3012 RMK A01 T00200003  RH  089%=      5-min Rain = 0
KUM1 111342Z 23012KT 02/00 A3012 RMK A01 T00200003  RH  088%=      5-min Rain = 0
KUM1 111343Z 23012KT 02/00 A3012 RMK A01 T00210003  RH  088%=      5-min Rain = 0
KUM1 111344Z 23012KT 02/00 A3012 RMK A01 T00210004  RH  088%=      5-min Rain = 0
KUM1 111345Z 23012KT 02/00 A3012 RMK A01 T00210003  RH  088%=      5-min Rain = 0
KUM1 111346Z 23012KT 02/00 A3012 RMK A01 T00210003  RH  088%=      5-min Rain = 0
KUM1 111347Z 23011KT 02/00 A3012 RMK A01 T00210003  RH  088%=      5-min Rain = 0
KUM1 111348Z 22013KT 02/00 A3012 RMK A01 T00220004  RH  088%=      5-min Rain = 0
KUM1 111349Z 23012KT 02/00 A3012 RMK A01 T00210003  RH  088%=      5-min Rain = 0
KUM1 111350Z 22012KT 02/00 A3012 RMK A01 T00210003  RH  088%=      5-min Rain = 0
KUM1 111351Z 22012KT 02/00 A3012 RMK A01 T00220004  RH  088%=      5-min Rain = 0
KUM1 111352Z 23013G18KT 02/00 A3012 RMK A01 T00220004  RH  088%=      5-min Rain = 0
KUM1 111353Z 23012KT 02/00 A3012 RMK A01 T00230004  RH  087%=      5-min Rain = 0
KUM1 111354Z 23011KT 02/00 A3012 RMK A01 T00240004  RH  087%=      5-min Rain = 0
KUM1 111355Z 23012KT 02/00 A3012 RMK A01 T00240004  RH  087%=      5-min Rain = 0
KUM1 111356Z 23011KT 03/01 A3012 RMK A01 T00250005  RH  087%=      5-min Rain = 0
KUM1 111357Z 23012KT 03/01 A3012 RMK A01 T00250005  RH  087%=      5-min Rain = 0
KUM1 111358Z 23012KT 03/01 A3012 RMK A01 T00260005  RH  086%=      5-min Rain = 0
KUM1 111359Z 23012KT 03/01 A3012 RMK A01 T00260005  RH  086%=      5-min Rain = 0
KUM1 111400Z 23013KT 03/01 A3011 RMK A01 T00260005  RH  086%=      5-min Rain = 0
KUM1 111401Z 23013KT 03/01 A3011 RMK A01 T00280006  RH  085%=      5-min Rain = 0
KUM1 111402Z 24013KT 03/01 A3011 RMK A01 T00280005  RH  085%=      5-min Rain = 0
KUM1 111403Z 23012G17KT 03/01 A3011 RMK A01 T00280005  RH  085%=      5-min Rain = 0
KUM1 111404Z 23013KT 03/01 A3011 RMK A01 T00290006  RH  085%=      5-min Rain = 0
KUM1 111405Z 23013G19KT 03/01 A3011 RMK A01 T00300006  RH  085%=      5-min Rain = 0
KUM1 111406Z 23013G19KT 03/01 A3011 RMK A01 T00300006  RH  084%=      5-min Rain = 0
KUM1 111407Z 23013KT 03/01 A3011 RMK A01 T00300006  RH  084%=      5-min Rain = 0
KUM1 111408Z 22014KT 03/01 A3011 RMK A01 T00300007  RH  085%=      5-min Rain = 0
KUM1 111409Z 23014KT 03/01 A3011 RMK A01 T00310007  RH  085%=      5-min Rain = 0
KUM1 111410Z 23016KT 03/01 A3011 RMK A01 T00310008  RH  085%=      5-min Rain = 0
KUM1 111411Z 23014KT 03/01 A3011 RMK A01 T00320008  RH  084%=      5-min Rain = 0
KUM1 111412Z 23015KT 03/01 A3011 RMK A01 T00320008  RH  084%=      5-min Rain = 0
KUM1 111413Z 23014KT 03/01 A3011 RMK A01 T00320008  RH  084%=      5-min Rain = 0
KUM1 111414Z 23015KT 03/01 A301 RMK A01 T00320008  RH  084%=      5-min Rain = 0
KUM1 111415Z 23016KT 03/01 A301 RMK A01 T00320009  RH  085%=      5-min Rain = 0
KUM1 111416Z 23015KT 03/01 A3011 RMK A01 T00330009  RH  085%=      5-min Rain = 0
KUM1 111417Z 23016KT 03/01 A3011 RMK A01 T00330009  RH  084%=      5-min Rain = 0
KUM1 111418Z 23015KT 03/01 A3011 RMK A01 T00340009  RH  084%=      5-min Rain = 0
KUM1 111419Z 23015KT 03/01 A3011 RMK A01 T00330009  RH  084%=      5-min Rain = 0
KUM1 111420Z 23015KT 03/01 A3011 RMK A01 T00330009  RH  084%=      5-min Rain = 0
KUM1 111421Z 23016KT 03/01 A301 RMK A01 T00340010  RH  084%=      5-min Rain = 0
KUM1 111422Z 23016KT 03/01 A301 RMK A01 T00340010  RH  085%=      5-min Rain = 0
KUM1 111423Z 24015KT 03/01 A301 RMK A01 T00340010  RH  085%=      5-min Rain = 0
KUM1 111424Z 23017KT 03/01 A301 RMK A01 T00340011  RH  085%=      5-min Rain = 0
KUM1 111425Z 23018KT 04/01 A301 RMK A01 T00350011  RH  085%=      5-min Rain = 0
KUM1 111426Z 23018KT 04/01 A301 RMK A01 T00350011  RH  084%=      5-min Rain = 0
KUM1 111427Z 23016KT 04/01 A301 RMK A01 T00360012  RH  084%=      5-min Rain = 0
KUM1 111428Z 24018KT 04/01 A301 RMK A01 T00370013  RH  084%=      5-min Rain = 0
KUM1 111429Z 23018KT 04/01 A301 RMK A01 T00370013  RH  084%=      5-min Rain = 0
KUM1 111430Z 24018KT 04/01 A301 RMK A01 T00380013  RH  084%=      5-min Rain = 0
KUM1 111431Z 23017KT 04/01 A301 RMK A01 T00380013  RH  084%=      5-min Rain = 0
KUM1 111432Z 23019KT 04/01 A301 RMK A01 T00380013  RH  084%=      5-min Rain = 0
KUM1 111433Z 23019KT 04/01 A301 RMK A01 T00380013  RH  084%=      5-min Rain = 0
KUM1 111434Z 23018KT 04/01 A301 RMK A01 T00390013  RH  083%=      5-min Rain = 0
KUM1 111435Z 23021KT 04/01 A301 RMK A01 T00390013  RH  083%=      5-min Rain = 0
KUM1 111436Z 23018G23KT 04/01 A301 RMK A01 T00390014  RH  083%=      5-min Rain = 0
KUM1 111437Z 23018G23KT 04/01 A301 RMK A01 T00400014  RH  083%=      5-min Rain = 0
KUM1 111438Z 23018KT 04/01 A301 RMK A01 T00400014  RH  083%=      5-min Rain = 0
KUM1 111439Z 23017KT 04/01 A301 RMK A01 T00410014  RH  083%=      5-min Rain = 0
KUM1 111440Z 23017KT 04/02 A301 RMK A01 T00410015  RH  083%=      5-min Rain = 0
KUM1 111441Z 23018G23KT 04/02 A301 RMK A01 T00410015  RH  083%=      5-min Rain = 0
KUM1 111442Z 23018KT 04/02 A301 RMK A01 T00420015  RH  083%=      5-min Rain = 0
KUM1 111443Z 22017KT 04/02 A301 RMK A01 T00420015  RH  083%=      5-min Rain = 0
KUM1 111444Z 23020KT 04/02 A301 RMK A01 T00430016  RH  083%=      5-min Rain = 0
KUM1 111445Z 23018KT 04/02 A301 RMK A01 T00430016  RH  082%=      5-min Rain = 0
KUM1 111446Z 22019G24KT 04/02 A301 RMK A01 T00440016  RH  082%=      5-min Rain = 0
KUM1 111447Z 23018KT 04/02 A301 RMK A01 T00430016  RH  082%=      5-min Rain = 0
KUM1 111448Z 22018KT 04/02 A301 RMK A01 T00440016  RH  082%=      5-min Rain = 0
KUM1 111449Z 22020KT 04/02 A301 RMK A01 T00440017  RH  082%=      5-min Rain = 0
KUM1 111450Z 22018KT 05/02 A301 RMK A01 T00450017  RH  082%=      5-min Rain = 0
KUM1 111451Z 22017KT 04/02 A301 RMK A01 T00440016  RH  082%=      5-min Rain = 0
KUM1 111452Z 23018KT 05/02 A301 RMK A01 T00450017  RH  082%=      5-min Rain = 0
KUM1 111453Z 22015KT 05/02 A3011 RMK A01 T00450017  RH  082%=      5-min Rain = 0
KUM1 111454Z 23017KT 04/02 A3011 RMK A01 T00440017  RH  082%=      5-min Rain = 0
KUM1 111455Z 23016KT 05/02 A3011 RMK A01 T00450017  RH  082%=      5-min Rain = 0
KUM1 111456Z 23016KT 05/02 A3011 RMK A01 T00450017  RH  082%=      5-min Rain = 0
KUM1 111457Z 23014KT 05/02 A3011 RMK A01 T00450018  RH  082%=      5-min Rain = 0
KUM1 111458Z 23015KT 05/02 A3011 RMK A01 T00460018  RH  082%=      5-min Rain = 0
KUM1 111459Z 23015KT 05/02 A3011 RMK A01 T00450018  RH  082%=      5-min Rain = 0
KUM1 111500Z 23015KT 05/02 A3011 RMK A01 T00450018  RH  082%=      5-min Rain = 0
KUM1 111501Z 23016KT 05/02 A3011 RMK A01 T00450018  RH  082%=      5-min Rain = 0
KUM1 111502Z 23016KT 05/02 A3011 RMK A01 T00460018  RH  082%=      5-min Rain = 0
KUM1 111503Z 23014KT 05/02 A301 RMK A01 T00460018  RH  082%=      5-min Rain = 0
KUM1 111504Z 23015KT 05/02 A301 RMK A01 T00460018  RH  082%=      5-min Rain = 0
KUM1 111505Z 23017KT 05/02 A301 RMK A01 T00460018  RH  082%=      5-min Rain = 0
KUM1 111506Z 23016G21KT 05/02 A301 RMK A01 T00470019  RH  082%=      5-min Rain = 0
KUM1 111507Z 23017G22KT 05/02 A301 RMK A01 T00470019  RH  082%=      5-min Rain = 0
KUM1 111508Z 23015KT 05/02 A301 RMK A01 T00470019  RH  082%=      5-min Rain = 0
KUM1 111509Z 23013KT 05/02 A301 RMK A01 T00470019  RH  082%=      5-min Rain = 0
KUM1 111510Z 23016KT 05/02 A301 RMK A01 T00480020  RH  082%=      5-min Rain = 0
KUM1 111511Z 23017KT 05/02 A301 RMK A01 T00480020  RH  082%=      5-min Rain = 0
KUM1 111512Z 23015KT 05/02 A301 RMK A01 T00490020  RH  082%=      5-min Rain = 0
KUM1 111513Z 23015G20KT 05/02 A301 RMK A01 T00490020  RH  082%=      5-min Rain = 0
KUM1 111514Z 22017KT 05/02 A301 RMK A01 T00490020  RH  082%=      5-min Rain = 0
KUM1 111515Z 23016KT 05/02 A301 RMK A01 T00500021  RH  081%=      5-min Rain = 0
KUM1 111516Z 23017KT 05/02 A301 RMK A01 T00500021  RH  081%=      5-min Rain = 0
KUM1 111517Z 23016G21KT 05/02 A301 RMK A01 T00510020  RH  081%=      5-min Rain = 0
KUM1 111518Z 23016KT 05/02 A301 RMK A01 T00510021  RH  081%=      5-min Rain = 0
KUM1 111519Z 23016KT 05/02 A301 RMK A01 T00520021  RH  080%=      5-min Rain = 0
KUM1 111520Z 23016KT 05/02 A301 RMK A01 T00520021  RH  080%=      5-min Rain = 0
KUM1 111521Z 23016KT 05/02 A301 RMK A01 T00520020  RH  080%=      5-min Rain = 0
KUM1 111522Z 23015KT 05/02 A301 RMK A01 T00520020  RH  080%=      5-min Rain = 0
KUM1 111523Z 23017KT 05/02 A301 RMK A01 T00520020  RH  080%=      5-min Rain = 0
KUM1 111524Z 23016KT 05/02 A301 RMK A01 T00530020  RH  080%=      5-min Rain = 0
KUM1 111525Z 23017KT 05/02 A301 RMK A01 T00530020  RH  079%=      5-min Rain = 0
KUM1 111526Z 23016KT 05/02 A301 RMK A01 T00530020  RH  079%=      5-min Rain = 0
KUM1 111527Z 23017G22KT 05/02 A301 RMK A01 T00530020  RH  079%=      5-min Rain = 0
KUM1 111528Z 23017KT 05/02 A301 RMK A01 T00540020  RH  079%=      5-min Rain = 0
KUM1 111529Z 23017KT 05/02 A301 RMK A01 T00540019  RH  078%=      5-min Rain = 0
KUM1 111530Z 23016KT 05/02 A301 RMK A01 T00540019  RH  078%=      5-min Rain = 0
KUM1 111531Z 23016KT 06/02 A301 RMK A01 T00550019  RH  078%=      5-min Rain = 0
KUM1 111532Z 23016KT 06/02 A301 RMK A01 T00550019  RH  078%=      5-min Rain = 0
KUM1 111533Z 23017KT 06/02 A301 RMK A01 T00550019  RH  077%=      5-min Rain = 0
KUM1 111534Z 23020KT 06/02 A301 RMK A01 T00550018  RH  077%=      5-min Rain = 0
KUM1 111535Z 23018KT 06/02 A3011 RMK A01 T00560017  RH  076%=      5-min Rain = 0
KUM1 111536Z 23017KT 06/02 A3011 RMK A01 T00570017  RH  075%=      5-min Rain = 0
KUM1 111537Z 23017KT 06/02 A3011 RMK A01 T00570016  RH  075%=      5-min Rain = 0
KUM1 111538Z 23017KT 06/02 A301 RMK A01 T00570017  RH  075%=      5-min Rain = 0
KUM1 111539Z 23017KT 06/02 A301 RMK A01 T00570017  RH  076%=      5-min Rain = 0
KUM1 111540Z 23018KT 06/02 A301 RMK A01 T00570017  RH  076%=      5-min Rain = 0
KUM1 111541Z 22018KT 06/02 A301 RMK A01 T00560017  RH  076%=      5-min Rain = 0
KUM1 111542Z 22019KT 06/02 A301 RMK A01 T00560017  RH  076%=      5-min Rain = 0
KUM1 111543Z 22018G23KT 06/02 A301 RMK A01 T00560017  RH  076%=      5-min Rain = 0
KUM1 111544Z 22017KT 06/02 A301 RMK A01 T00560017  RH  076%=      5-min Rain = 0
KUM1 111545Z 22017KT 06/02 A301 RMK A01 T00560017  RH  076%=      5-min Rain = 0
KUM1 111546Z 22016KT 06/02 A301 RMK A01 T00560017  RH  076%=      5-min Rain = 0
KUM1 111547Z 22015KT 06/02 A301 RMK A01 T00560017  RH  076%=      5-min Rain = 0
KUM1 111548Z 23018KT 06/02 A301 RMK A01 T00560017  RH  076%=      5-min Rain = 0
KUM1 111549Z 23015KT 06/02 A301 RMK A01 T00560016  RH  075%=      5-min Rain = 0
KUM1 111550Z 23015G20KT 06/02 A301 RMK A01 T00570016  RH  075%=      5-min Rain = 0
KUM1 111551Z 22016G21KT 06/02 A301 RMK A01 T00570015  RH  074%=      5-min Rain = 0
KUM1 111552Z 22016KT 06/02 A301 RMK A01 T00570015  RH  074%=      5-min Rain = 0
KUM1 111553Z 22015KT 06/02 A301 RMK A01 T00580015  RH  074%=      5-min Rain = 0
KUM1 111554Z 22016KT 06/02 A301 RMK A01 T00580015  RH  074%=      5-min Rain = 0
KUM1 111555Z 23016KT 06/02 A301 RMK A01 T00580015  RH  074%=      5-min Rain = 0
KUM1 111556Z 22016G21KT 06/01 A3009 RMK A01 T00580014  RH  073%=      5-min Rain = 0
KUM1 111557Z 22016KT 06/01 A3009 RMK A01 T00580014  RH  073%=      5-min Rain = 0
KUM1 111558Z 22015KT 06/01 A3009 RMK A01 T00580014  RH  073%=      5-min Rain = 0
KUM1 111559Z 23015KT 06/01 A3009 RMK A01 T00580013  RH  073%=      5-min Rain = 0
KUM1 111600Z 23016KT 06/01 A3009 RMK A01 T00590013  RH  073%=      5-min Rain = 0
KUM1 111601Z 23016KT 06/01 A3009 RMK A01 T00590012  RH  072%=      5-min Rain = 0
KUM1 111602Z 23016KT 06/01 A3009 RMK A01 T00590012  RH  071%=      5-min Rain = 0
KUM1 111603Z 22015KT 06/01 A301 RMK A01 T00600012  RH  071%=      5-min Rain = 0
KUM1 111604Z 23015KT 06/01 A3009 RMK A01 T00600012  RH  072%=      5-min Rain = 0
KUM1 111605Z 23015KT 06/01 A3009 RMK A01 T00590012  RH  072%=      5-min Rain = 0
KUM1 111606Z 23016KT 06/01 A3009 RMK A01 T00600013  RH  072%=      5-min Rain = 0
KUM1 111607Z 23017KT 06/01 A3009 RMK A01 T00590012  RH  071%=      5-min Rain = 0
KUM1 111608Z 23014KT 06/01 A3009 RMK A01 T00600011  RH  071%=      5-min Rain = 0
KUM1 111609Z 23016KT 06/01 A3009 RMK A01 T00600012  RH  071%=      5-min Rain = 0
KUM1 111610Z 23017KT 06/01 A301 RMK A01 T00600011  RH  071%=      5-min Rain = 0
KUM1 111611Z 23017KT 06/01 A3009 RMK A01 T00590010  RH  071%=      5-min Rain = 0
KUM1 111612Z 23016KT 06/01 A3009 RMK A01 T00600010  RH  070%=      5-min Rain = 0
KUM1 111613Z 23017KT 06/01 A3009 RMK A01 T00600009  RH  070%=      5-min Rain = 0
KUM1 111614Z 23018KT 06/01 A3009 RMK A01 T00600009  RH  070%=      5-min Rain = 0
KUM1 111615Z 23017G23KT 06/01 A3009 RMK A01 T00600009  RH  069%=      5-min Rain = 0
KUM1 111616Z 23019KT 06/01 A3009 RMK A01 T00610009  RH  069%=      5-min Rain = 0
KUM1 111617Z 23017KT 06/01 A3009 RMK A01 T00610009  RH  069%=      5-min Rain = 0
KUM1 111618Z 22017KT 06/01 A3009 RMK A01 T00610010  RH  070%=      5-min Rain = 0
KUM1 111619Z 22017KT 06/01 A3009 RMK A01 T00610009  RH  070%=      5-min Rain = 0
KUM1 111620Z 23018KT 06/01 A3009 RMK A01 T00610009  RH  069%=      5-min Rain = 0
KUM1 111621Z 23019KT 06/01 A3009 RMK A01 T00610008  RH  069%=      5-min Rain = 0
KUM1 111622Z 23016KT 06/01 A3009 RMK A01 T00620008  RH  069%=      5-min Rain = 0
KUM1 111623Z 23017KT 06/01 A3009 RMK A01 T00620009  RH  069%=      5-min Rain = 0
KUM1 111624Z 23017KT 06/01 A3009 RMK A01 T00620008  RH  068%=      5-min Rain = 0
KUM1 111625Z 23018KT 06/01 A3009 RMK A01 T00620008  RH  068%=      5-min Rain = 0
KUM1 111626Z 22020KT 06/01 A3009 RMK A01 T00620008  RH  068%=      5-min Rain = 0
KUM1 111627Z 23020KT 06/01 A3009 RMK A01 T00630007  RH  068%=      5-min Rain = 0
KUM1 111628Z 23021KT 06/01 A3009 RMK A01 T00640007  RH  067%=      5-min Rain = 0
KUM1 111629Z 23017KT 06/01 A3009 RMK A01 T00640007  RH  067%=      5-min Rain = 0
KUM1 111630Z 22019G24KT 06/01 A3009 RMK A01 T00640007  RH  067%=      5-min Rain = 0
KUM1 111631Z 23018G23KT 06/01 A3009 RMK A01 T00640006  RH  066%=      5-min Rain = 0
KUM1 111632Z 23019KT 07/01 A3009 RMK A01 T00650006  RH  066%=      5-min Rain = 0
KUM1 111633Z 23019KT 07/01 A3009 RMK A01 T00650005  RH  065%=      5-min Rain = 0
KUM1 111634Z 23021KT 07/01 A3009 RMK A01 T00660005  RH  065%=      5-min Rain = 0
KUM1 111635Z 23019KT 07/01 A3009 RMK A01 T00660005  RH  065%=      5-min Rain = 0
KUM1 111636Z 23016KT 07/01 A3009 RMK A01 T00670005  RH  064%=      5-min Rain = 0
KUM1 111637Z 23017KT 07/01 A3009 RMK A01 T00670005  RH  065%=      5-min Rain = 0
KUM1 111638Z 22017KT 07/00 A3009 RMK A01 T00670004  RH  064%=      5-min Rain = 0
KUM1 111639Z 23018KT 07/00 A3009 RMK A01 T00680004  RH  064%=      5-min Rain = 0
KUM1 111640Z 23019KT 07/00 A3009 RMK A01 T00690003  RH  063%=      5-min Rain = 0
KUM1 111641Z 22017G22KT 07/00 A3009 RMK A01 T00700003  RH  063%=      5-min Rain = 0
KUM1 111642Z 23018G23KT 07/00 A3009 RMK A01 T00700002  RH  062%=      5-min Rain = 0
KUM1 111643Z 23018G26KT 07/00 A3008 RMK A01 T00710003  RH  062%=      5-min Rain = 0
KUM1 111644Z 23020KT 07/00 A3008 RMK A01 T00700002  RH  062%=      5-min Rain = 0
KUM1 111645Z 22018KT 07/00 A3008 RMK A01 T00710002  RH  062%=      5-min Rain = 0
KUM1 111646Z 22019KT 07/00 A3008 RMK A01 T00710002  RH  061%=      5-min Rain = 0
KUM1 111647Z 23016KT 07/00 A3008 RMK A01 T00720002  RH  061%=      5-min Rain = 0
KUM1 111648Z 23018KT 07/00 A3008 RMK A01 T00720001  RH  061%=      5-min Rain = 0
KUM1 111649Z 23017KT 07/00 A3008 RMK A01 T00720002  RH  061%=      5-min Rain = 0
KUM1 111650Z 23018G23KT 07/00 A3008 RMK A01 T00720001  RH  061%=      5-min Rain = 0
KUM1 111651Z 23017KT 07/00 A3008 RMK A01 T00720000  RH  060%=      5-min Rain = 0
KUM1 111652Z 23017KT 07/00 A3008 RMK A01 T00720000  RH  060%=      5-min Rain = 0
KUM1 111653Z 22017G22KT 07/00 A3008 RMK A01 T00720000  RH  060%=      5-min Rain = 0
KUM1 111654Z 23019G24KT 07/00 A3008 RMK A01 T007300-0  RH  060%=      5-min Rain = 0
KUM1 111655Z 23018KT 07/M00 A3008 RMK A01 T00741001  RH  059%=      5-min Rain = 0
KUM1 111656Z 23018KT 07/M00 A3008 RMK A01 T00741001  RH  059%=      5-min Rain = 0
KUM1 111657Z 23019G24KT 08/M00 A3008 RMK A01 T00751002  RH  058%=      5-min Rain = 0
KUM1 111658Z 22016KT 08/M00 A3008 RMK A01 T00751002  RH  058%=      5-min Rain = 0
KUM1 111659Z 22020KT 08/M00 A3008 RMK A01 T00751001  RH  059%=      5-min Rain = 0
KUM1 111700Z 23018KT 08/M00 A3008 RMK A01 T00751001  RH  059%=      5-min Rain = 0
KUM1 111701Z 22018KT 08/M00 A3008 RMK A01 T00751001  RH  059%=      5-min Rain = 0
KUM1 111702Z 23018G23KT 08/M00 A3008 RMK A01 T00751001  RH  059%=      5-min Rain = 0
KUM1 111703Z 23018KT 08/M00 A3008 RMK A01 T00751001  RH  059%=      5-min Rain = 0
KUM1 111704Z 23018KT 08/M00 A3008 RMK A01 T00751001  RH  059%=      5-min Rain = 0
KUM1 111705Z 23017G22KT 08/M00 A3008 RMK A01 T00751001  RH  058%=      5-min Rain = 0
KUM1 111706Z 23017KT 08/M00 A3008 RMK A01 T00751001  RH  058%=      5-min Rain = 0
KUM1 111707Z 23018G24KT 08/M00 A3008 RMK A01 T00761001  RH  058%=      5-min Rain = 0
KUM1 111708Z 23017G23KT 08/M00 A3008 RMK A01 T00761001  RH  058%=      5-min Rain = 0
KUM1 111709Z 23018KT 08/M00 A3008 RMK A01 T00761001  RH  058%=      5-min Rain = 0
KUM1 111710Z 23017KT 08/00 A3008 RMK A01 T007700-0  RH  058%=      5-min Rain = 0
KUM1 111711Z 23016G21KT 08/00 A3008 RMK A01 T007700-0  RH  058%=      5-min Rain = 0
KUM1 111712Z 23016G21KT 08/00 A3008 RMK A01 T007700-0  RH  058%=      5-min Rain = 0
KUM1 111713Z 23017G23KT 08/00 A3008 RMK A01 T007700-0  RH  058%=      5-min Rain = 0
KUM1 111714Z 23019G24KT 08/00 A3008 RMK A01 T007800-0  RH  058%=      5-min Rain = 0
KUM1 111715Z 24018KT 08/00 A3008 RMK A01 T00780000  RH  058%=      5-min Rain = 0
KUM1 111716Z 23018KT 08/00 A3008 RMK A01 T00780001  RH  058%=      5-min Rain = 0
KUM1 111717Z 24018KT 08/00 A3008 RMK A01 T00780000  RH  058%=      5-min Rain = 0
KUM1 111718Z 23017KT 08/00 A3008 RMK A01 T00780001  RH  058%=      5-min Rain = 0
KUM1 111719Z 23018KT 08/00 A3007 RMK A01 T00780001  RH  058%=      5-min Rain = 0
KUM1 111720Z 23017KT 08/00 A3007 RMK A01 T00790002  RH  058%=      5-min Rain = 0
KUM1 111721Z 23017G22KT 08/00 A3007 RMK A01 T00790002  RH  058%=      5-min Rain = 0
KUM1 111722Z 23018KT 08/00 A3007 RMK A01 T00790002  RH  058%=      5-min Rain = 0
KUM1 111723Z 23017KT 08/00 A3007 RMK A01 T00790002  RH  058%=      5-min Rain = 0
KUM1 111724Z 23017KT 08/00 A3007 RMK A01 T00800002  RH  058%=      5-min Rain = 0
KUM1 111725Z 23017KT 08/00 A3007 RMK A01 T00800003  RH  058%=      5-min Rain = 0
KUM1 111726Z 23017G22KT 08/00 A3007 RMK A01 T00800003  RH  058%=      5-min Rain = 0
KUM1 111727Z 23018KT 08/00 A3007 RMK A01 T00810003  RH  058%=      5-min Rain = 0
KUM1 111728Z 23016KT 08/00 A3007 RMK A01 T00810003  RH  058%=      5-min Rain = 0
KUM1 111729Z 23018G23KT 08/00 A3007 RMK A01 T00810003  RH  058%=      5-min Rain = 0
KUM1 111730Z 23017G24KT 08/00 A3007 RMK A01 T00820004  RH  058%=      5-min Rain = 0
KUM1 111731Z 23017KT 08/00 A3007 RMK A01 T00820003  RH  057%=      5-min Rain = 0
KUM1 111732Z 23017KT 08/00 A3007 RMK A01 T00840003  RH  057%=      5-min Rain = 0
KUM1 111733Z 23015KT 08/00 A3007 RMK A01 T00840004  RH  057%=      5-min Rain = 0
KUM1 111734Z 23016KT 08/00 A3007 RMK A01 T00840004  RH  057%=      5-min Rain = 0
KUM1 111735Z 23016KT 09/00 A3007 RMK A01 T00850003  RH  057%=      5-min Rain = 0
KUM1 111736Z 23017KT 09/00 A3007 RMK A01 T00850002  RH  056%=      5-min Rain = 0
KUM1 111737Z 23015KT 09/00 A3007 RMK A01 T00860003  RH  056%=      5-min Rain = 0
KUM1 111738Z 23014KT 09/00 A3007 RMK A01 T00860003  RH  056%=      5-min Rain = 0
KUM1 111739Z 23016KT 09/00 A3006 RMK A01 T00860004  RH  056%=      5-min Rain = 0
KUM1 111740Z 23015KT 09/00 A3006 RMK A01 T00860002  RH  055%=      5-min Rain = 0
KUM1 111741Z 23015KT 09/00 A3006 RMK A01 T00870003  RH  055%=      5-min Rain = 0
KUM1 111742Z 23016G21KT 09/00 A3006 RMK A01 T00870004  RH  056%=      5-min Rain = 0
KUM1 111743Z 23017KT 09/00 A3006 RMK A01 T00880003  RH  055%=      5-min Rain = 0
KUM1 111744Z 23014KT 09/00 A3006 RMK A01 T00880002  RH  055%=      5-min Rain = 0
KUM1 111745Z 23014KT 09/00 A3006 RMK A01 T00880003  RH  055%=      5-min Rain = 0
KUM1 111746Z 23014KT 09/00 A3006 RMK A01 T00890004  RH  055%=      5-min Rain = 0
KUM1 111747Z 23015G20KT 09/00 A3006 RMK A01 T00890004  RH  055%=      5-min Rain = 0
KUM1 111748Z 23014G19KT 09/01 A3006 RMK A01 T00900005  RH  055%=      5-min Rain = 0
KUM1 111749Z 23015KT 09/01 A3006 RMK A01 T00900005  RH  055%=      5-min Rain = 0
KUM1 111750Z 23018KT 09/00 A3006 RMK A01 T00910003  RH  054%=      5-min Rain = 0
KUM1 111751Z 23017G23KT 09/00 A3006 RMK A01 T00910003  RH  054%=      5-min Rain = 0
KUM1 111752Z 23017KT 09/00 A3006 RMK A01 T00920003  RH  054%=      5-min Rain = 0
KUM1 111753Z 23016KT 09/00 A3006 RMK A01 T00920004  RH  054%=      5-min Rain = 0
KUM1 111754Z 22018KT 09/00 A3006 RMK A01 T00920004  RH  054%=      5-min Rain = 0
KUM1 111755Z 23017G22KT 09/00 A3006 RMK A01 T00920003  RH  054%=      5-min Rain = 0
KUM1 111756Z 23018KT 09/00 A3006 RMK A01 T00930003  RH  053%=      5-min Rain = 0
KUM1 111757Z 23019KT 09/00 A3006 RMK A01 T00940003  RH  053%=      5-min Rain = 0
KUM1 111758Z 23015KT 09/00 A3006 RMK A01 T00940004  RH  053%=      5-min Rain = 0
KUM1 111759Z 23014KT 09/00 A3006 RMK A01 T00940004  RH  054%=      5-min Rain = 0
KUM1 111800Z 23015KT 10/01 A3005 RMK A01 T00950005  RH  053%=      5-min Rain = 0
KUM1 111801Z 23015KT 10/01 A3005 RMK A01 T00950005  RH  053%=      5-min Rain = 0
KUM1 111802Z 23016KT 10/01 A3005 RMK A01 T00960005  RH  053%=      5-min Rain = 0
KUM1 111803Z 23016KT 10/00 A3005 RMK A01 T00970003  RH  052%=      5-min Rain = 0
KUM1 111804Z 23017KT 10/00 A3005 RMK A01 T00970003  RH  052%=      5-min Rain = 0
KUM1 111805Z 23014KT 10/00 A3005 RMK A01 T00970003  RH  052%=      5-min Rain = 0
KUM1 111806Z 23016KT 10/01 A3005 RMK A01 T00980005  RH  052%=      5-min Rain = 0
KUM1 111807Z 23017KT 10/00 A3005 RMK A01 T00970003  RH  052%=      5-min Rain = 0
KUM1 111808Z 23015KT 10/00 A3004 RMK A01 T00980002  RH  051%=      5-min Rain = 0
KUM1 111809Z 23015KT 10/00 A3004 RMK A01 T00980002  RH  051%=      5-min Rain = 0
KUM1 111810Z 23016KT 10/00 A3004 RMK A01 T00990002  RH  051%=      5-min Rain = 0
KUM1 111811Z 23016KT 10/00 A3004 RMK A01 T00990002  RH  051%=      5-min Rain = 0
KUM1 111812Z 23014KT 10/00 A3004 RMK A01 T00990003  RH  051%=      5-min Rain = 0
KUM1 111813Z 22015KT 10/00 A3004 RMK A01 T00990003  RH  051%=      5-min Rain = 0
KUM1 111814Z 23015KT 10/00 A3004 RMK A01 T01000003  RH  051%=      5-min Rain = 0
KUM1 111815Z 23014KT 10/00 A3004 RMK A01 T01000003  RH  051%=      5-min Rain = 0
KUM1 111816Z 22015KT 10/01 A3004 RMK A01 T01010005  RH  051%=      5-min Rain = 0
KUM1 111817Z 23014KT 10/00 A3004 RMK A01 T01010004  RH  051%=      5-min Rain = 0
KUM1 111818Z 23013KT 10/00 A3004 RMK A01 T01020004  RH  051%=      5-min Rain = 0
KUM1 111819Z 23015KT 10/01 A3004 RMK A01 T01020005  RH  051%=      5-min Rain = 0
KUM1 111820Z 23015KT 10/00 A3004 RMK A01 T01020004  RH  050%=      5-min Rain = 0
KUM1 111821Z 23015KT 10/00 A3004 RMK A01 T01030004  RH  050%=      5-min Rain = 0
KUM1 111822Z 23015KT 10/00 A3004 RMK A01 T01030004  RH  050%=      5-min Rain = 0
KUM1 111823Z 23016KT 10/00 A3004 RMK A01 T01030004  RH  050%=      5-min Rain = 0
KUM1 111824Z 23014KT 10/00 A3004 RMK A01 T01030003  RH  050%=      5-min Rain = 0
KUM1 111825Z 23012KT 10/01 A3004 RMK A01 T01030005  RH  050%=      5-min Rain = 0
KUM1 111826Z 23015KT 10/01 A3004 RMK A01 T01040006  RH  051%=      5-min Rain = 0
KUM1 111827Z 23016KT 10/00 A3004 RMK A01 T01040004  RH  050%=      5-min Rain = 0
KUM1 111828Z 23017KT 11/00 A3004 RMK A01 T01050003  RH  049%=      5-min Rain = 0
KUM1 111829Z 23016KT 11/00 A3003 RMK A01 T01050002  RH  049%=      5-min Rain = 0
KUM1 111830Z 24014KT 11/00 A3003 RMK A01 T01050003  RH  049%=      5-min Rain = 0
KUM1 111831Z 23012KT 11/00 A3003 RMK A01 T01050003  RH  049%=      5-min Rain = 0
KUM1 111832Z 22015KT 11/00 A3003 RMK A01 T01060004  RH  049%=      5-min Rain = 0
KUM1 111833Z 23016KT 11/00 A3003 RMK A01 T01060003  RH  049%=      5-min Rain = 0
KUM1 111834Z 23015KT 11/00 A3003 RMK A01 T01070003  RH  048%=      5-min Rain = 0
KUM1 111835Z 23015KT 11/00 A3003 RMK A01 T01070004  RH  049%=      5-min Rain = 0
KUM1 111836Z 23014KT 11/00 A3003 RMK A01 T01070003  RH  049%=      5-min Rain = 0
KUM1 111837Z 23013KT 11/00 A3003 RMK A01 T01070003  RH  049%=      5-min Rain = 0
KUM1 111838Z 23013KT 11/00 A3003 RMK A01 T01080004  RH  049%=      5-min Rain = 0
KUM1 111839Z 23014KT 11/01 A3003 RMK A01 T01080005  RH  049%=      5-min Rain = 0
KUM1 111840Z 23016KT 11/00 A3003 RMK A01 T01090004  RH  048%=      5-min Rain = 0
KUM1 111841Z 23017G22KT 11/00 A3003 RMK A01 T01100002  RH  048%=      5-min Rain = 0
KUM1 111842Z 23017G23KT 11/00 A3003 RMK A01 T01100002  RH  047%=      5-min Rain = 0
KUM1 111843Z 23018KT 11/00 A3003 RMK A01 T01110001  RH  047%=      5-min Rain = 0
KUM1 111844Z 24020KT 11/00 A3003 RMK A01 T01110000  RH  046%=      5-min Rain = 0
KUM1 111845Z 24017KT 11/00 A3003 RMK A01 T01110001  RH  047%=      5-min Rain = 0
KUM1 111846Z 24018KT 11/00 A3003 RMK A01 T01110001  RH  047%=      5-min Rain = 0
KUM1 111847Z 24018KT 11/00 A3003 RMK A01 T01110002  RH  047%=      5-min Rain = 0
KUM1 111848Z 23014KT 11/01 A3003 RMK A01 T01120005  RH  048%=      5-min Rain = 0
KUM1 111849Z 24016G21KT 11/01 A3004 RMK A01 T01120006  RH  048%=      5-min Rain = 0
KUM1 111850Z 24014KT 11/01 A3003 RMK A01 T01120006  RH  048%=      5-min Rain = 0
KUM1 111851Z 23016KT 11/01 A3003 RMK A01 T01130005  RH  047%=      5-min Rain = 0
KUM1 111852Z 24015KT 11/00 A3003 RMK A01 T01130003  RH  047%=      5-min Rain = 0
KUM1 111853Z 24018KT 11/00 A3003 RMK A01 T01140003  RH  046%=      5-min Rain = 0
KUM1 111854Z 24017G22KT 11/00 A3003 RMK A01 T01130001  RH  046%=      5-min Rain = 0
KUM1 111855Z 24017KT 11/00 A3003 RMK A01 T01140003  RH  046%=      5-min Rain = 0
KUM1 111856Z 24018KT 11/00 A3003 RMK A01 T01140002  RH  046%=      5-min Rain = 0
KUM1 111857Z 24015KT 11/00 A3003 RMK A01 T01140001  RH  046%=      5-min Rain = 0
KUM1 111858Z 24014KT 12/00 A3003 RMK A01 T01150004  RH  047%=      5-min Rain = 0
KUM1 111859Z 23015G22KT 11/00 A3003 RMK A01 T01140004  RH  047%=      5-min Rain = 0
KUM1 111900Z 23017G22KT 12/00 A3003 RMK A01 T01150000  RH  045%=      5-min Rain = 0
KUM1 111901Z 24015G20KT 12/00 A3003 RMK A01 T01150002  RH  046%=      5-min Rain = 0
KUM1 111902Z 23018KT 12/00 A3003 RMK A01 T01150002  RH  046%=      5-min Rain = 0
KUM1 111903Z 23018KT 12/00 A3003 RMK A01 T011500-0  RH  045%=      5-min Rain = 0
KUM1 111904Z 23016KT 12/00 A3003 RMK A01 T011500-0  RH  045%=      5-min Rain = 0
KUM1 111905Z 24019KT 12/M00 A3003 RMK A01 T01151001  RH  045%=      5-min Rain = 0
KUM1 111906Z 23019KT 12/M01 A3003 RMK A01 T01151005  RH  044%=      5-min Rain = 0
KUM1 111907Z 23017G23KT 12/M01 A3002 RMK A01 T01151005  RH  043%=      5-min Rain = 0
KUM1 111908Z 24019G24KT 12/M01 A3002 RMK A01 T01151005  RH  043%=      5-min Rain = 0
KUM1 111909Z 23017KT 12/M01 A3002 RMK A01 T01151005  RH  043%=      5-min Rain = 0
KUM1 111910Z 24018G23KT 12/M00 A3002 RMK A01 T01161004  RH  044%=      5-min Rain = 0
KUM1 111911Z 24018KT 12/M01 A3002 RMK A01 T01161005  RH  043%=      5-min Rain = 0
KUM1 111912Z 23018KT 12/M00 A3002 RMK A01 T01171004  RH  043%=      5-min Rain = 0
KUM1 111913Z 23017KT 12/M00 A3002 RMK A01 T01171004  RH  043%=      5-min Rain = 0
KUM1 111914Z 23014KT 12/M00 A3002 RMK A01 T01171003  RH  044%=      5-min Rain = 0
KUM1 111915Z 23015KT 12/M00 A3002 RMK A01 T01181002  RH  044%=      5-min Rain = 0
KUM1 111916Z 23015KT 12/M00 A3002 RMK A01 T01181002  RH  044%=      5-min Rain = 0
KUM1 111917Z 24016KT 12/M00 A3001 RMK A01 T01181001  RH  044%=      5-min Rain = 0
KUM1 111918Z 23016KT 12/M00 A3001 RMK A01 T01181002  RH  044%=      5-min Rain = 0
KUM1 111919Z 23014KT 12/M00 A3001 RMK A01 T01191002  RH  043%=      5-min Rain = 0
KUM1 111920Z 24014KT 12/M00 A3001 RMK A01 T01191002  RH  043%=      5-min Rain = 0
KUM1 111921Z 23013KT 12/M00 A3001 RMK A01 T01191001  RH  043%=      5-min Rain = 0
KUM1 111922Z 24012G17KT 12/00 A3001 RMK A01 T012000-0  RH  044%=      5-min Rain = 0
KUM1 111923Z 23012KT 12/00 A3001 RMK A01 T01190000  RH  044%=      5-min Rain = 0
KUM1 111924Z 23011KT 12/M00 A3001 RMK A01 T01201001  RH  043%=      5-min Rain = 0
KUM1 111925Z 23013G18KT 12/M00 A3001 RMK A01 T01201002  RH  043%=      5-min Rain = 0
KUM1 111926Z 23015KT 12/M00 A3001 RMK A01 T01201003  RH  043%=      5-min Rain = 0
KUM1 111927Z 23016KT 12/M01 A3001 RMK A01 T01201005  RH  042%=      5-min Rain = 0
KUM1 111928Z 23014KT 12/M00 A3001 RMK A01 T01201004  RH  042%=      5-min Rain = 0
KUM1 111929Z 23014KT 12/M00 A3001 RMK A01 T01201004  RH  042%=      5-min Rain = 0
KUM1 111930Z 23014KT 12/M00 A30 RMK A01 T01201004  RH  042%=      5-min Rain = 0
KUM1 111931Z 23016KT 12/M01 A30 RMK A01 T01201007  RH  041%=      5-min Rain = 0
KUM1 111932Z 23014G19KT 12/M01 A30 RMK A01 T01201006  RH  042%=      5-min Rain = 0
KUM1 111933Z 23013KT 12/M01 A30 RMK A01 T01201007  RH  042%=      5-min Rain = 0
KUM1 111934Z 23014KT 12/M01 A30 RMK A01 T01201008  RH  041%=      5-min Rain = 0
KUM1 111935Z 23014KT 12/M01 A30 RMK A01 T01201007  RH  041%=      5-min Rain = 0
KUM1 111936Z 23013KT 12/M01 A30 RMK A01 T01201008  RH  041%=      5-min Rain = 0
KUM1 111937Z 23011KT 12/M01 A30 RMK A01 T01201007  RH  041%=      5-min Rain = 0
KUM1 111938Z 24010KT 12/M01 A30 RMK A01 T01201006  RH  042%=      5-min Rain = 0
KUM1 111939Z 23013KT 12/M00 A30 RMK A01 T01211004  RH  042%=      5-min Rain = 0
KUM1 111940Z 23014G19KT 12/M01 A2999 RMK A01 T01211006  RH  041%=      5-min Rain = 0
KUM1 111941Z 23015KT 12/M01 A2999 RMK A01 T01211008  RH  041%=      5-min Rain = 0
KUM1 111942Z 23014KT 12/M01 A30 RMK A01 T01211008  RH  041%=      5-min Rain = 0
KUM1 111943Z 23014KT 12/M01 A2999 RMK A01 T01211007  RH  041%=      5-min Rain = 0
KUM1 111944Z 23012KT 12/M01 A2999 RMK A01 T01211007  RH  041%=      5-min Rain = 0
KUM1 111945Z 23014KT 12/M01 A2999 RMK A01 T01221007  RH  041%=      5-min Rain = 0
KUM1 111946Z 23016G21KT 12/M01 A2999 RMK A01 T01221010  RH  040%=      5-min Rain = 0
KUM1 111947Z 23016KT 12/M01 A2999 RMK A01 T01221011  RH  040%=      5-min Rain = 0
KUM1 111948Z 22017KT 12/M01 A2999 RMK A01 T01221011  RH  040%=      5-min Rain = 0
KUM1 111949Z 22015KT 12/M01 A2999 RMK A01 T01221010  RH  040%=      5-min Rain = 0
KUM1 111950Z 22015KT 12/M01 A2999 RMK A01 T01221009  RH  040%=      5-min Rain = 0
KUM1 111951Z 22017KT 12/M01 A2999 RMK A01 T01221010  RH  040%=      5-min Rain = 0
KUM1 111952Z 23017KT 12/M01 A2998 RMK A01 T01221011  RH  040%=      5-min Rain = 0
KUM1 111953Z 23014G19KT 12/M01 A2998 RMK A01 T01221010  RH  040%=      5-min Rain = 0
KUM1 111954Z 23015KT 12/M01 A2998 RMK A01 T01221007  RH  041%=      5-min Rain = 0
KUM1 111955Z 23017KT 12/M01 A2998 RMK A01 T01221008  RH  040%=      5-min Rain = 0
KUM1 111956Z 23016KT 12/M01 A2998 RMK A01 T01221007  RH  041%=      5-min Rain = 0
KUM1 111957Z 23017KT 12/M01 A2998 RMK A01 T01221008  RH  041%=      5-min Rain = 0
KUM1 111958Z 23014KT 12/M01 A2998 RMK A01 T01221007  RH  041%=      5-min Rain = 0
KUM1 111959Z 23013KT 12/M01 A2998 RMK A01 T01231007  RH  041%=      5-min Rain = 0
KUM1 112000Z 23016G21KT 12/M01 A2998 RMK A01 T01231008  RH  040%=      5-min Rain = 0
KUM1 112001Z 23014G20KT 12/M01 A2998 RMK A01 T01231009  RH  040%=      5-min Rain = 0
KUM1 112002Z 23016KT 12/M01 A2998 RMK A01 T01231009  RH  040%=      5-min Rain = 0
KUM1 112003Z 23015KT 12/M01 A2998 RMK A01 T01241009  RH  040%=      5-min Rain = 0
KUM1 112004Z 23014KT 12/M01 A2997 RMK A01 T01241009  RH  040%=      5-min Rain = 0
KUM1 112005Z 23015KT 12/M01 A2997 RMK A01 T01241010  RH  040%=      5-min Rain = 0
KUM1 112006Z 23014KT 12/M01 A2997 RMK A01 T01241010  RH  039%=      5-min Rain = 0
KUM1 112007Z 23014KT 12/M01 A2997 RMK A01 T01241009  RH  040%=      5-min Rain = 0
KUM1 112008Z 23015KT 12/M01 A2997 RMK A01 T01241007  RH  040%=      5-min Rain = 0
KUM1 112009Z 23014KT 12/M01 A2997 RMK A01 T01241009  RH  040%=      5-min Rain = 0
KUM1 112010Z 23014KT 13/M01 A2997 RMK A01 T01251010  RH  039%=      5-min Rain = 0
KUM1 112011Z 23015KT 13/M01 A2997 RMK A01 T01251011  RH  039%=      5-min Rain = 0
KUM1 112012Z 23016KT 13/M01 A2997 RMK A01 T01251011  RH  039%=      5-min Rain = 0
KUM1 112013Z 23014G19KT 13/M01 A2997 RMK A01 T01251012  RH  039%=      5-min Rain = 0
KUM1 112014Z 23014KT 13/M01 A2997 RMK A01 T01261010  RH  039%=      5-min Rain = 0
KUM1 112015Z 23013KT 13/M01 A2997 RMK A01 T01261010  RH  039%=      5-min Rain = 0
KUM1 112016Z 23014KT 13/M01 A2997 RMK A01 T01261011  RH  038%=      5-min Rain = 0
KUM1 112017Z 23014KT 13/M01 A2997 RMK A01 T01271011  RH  038%=      5-min Rain = 0
KUM1 112018Z 23014KT 13/M01 A2997 RMK A01 T01271011  RH  038%=      5-min Rain = 0
KUM1 112019Z 22014KT 13/M01 A2997 RMK A01 T01271011  RH  038%=      5-min Rain = 0
KUM1 112020Z 23016KT 13/M01 A2997 RMK A01 T01281010  RH  038%=      5-min Rain = 0
KUM1 112021Z 23016KT 13/M01 A2997 RMK A01 T01281010  RH  038%=      5-min Rain = 0
KUM1 112022Z 22015KT 13/M01 A2997 RMK A01 T01281010  RH  039%=      5-min Rain = 0
KUM1 112023Z 22017KT 13/M01 A2997 RMK A01 T01291009  RH  039%=      5-min Rain = 0
KUM1 112024Z 22018G23KT 13/M01 A2997 RMK A01 T01291011  RH  038%=      5-min Rain = 0
KUM1 112025Z 23017KT 13/M01 A2997 RMK A01 T01291012  RH  038%=      5-min Rain = 0
KUM1 112026Z 23015KT 13/M01 A2997 RMK A01 T01301012  RH  037%=      5-min Rain = 0
KUM1 112027Z 23015KT 13/M01 A2997 RMK A01 T01301010  RH  038%=      5-min Rain = 0
KUM1 112028Z 23014KT 13/M01 A2997 RMK A01 T01301011  RH  038%=      5-min Rain = 0
KUM1 112029Z 23014KT 13/M01 A2997 RMK A01 T01301009  RH  038%=      5-min Rain = 0
KUM1 112030Z 23015KT 13/M01 A2997 RMK A01 T01301010  RH  038%=      5-min Rain = 0
KUM1 112031Z 23013KT 13/M01 A2997 RMK A01 T01301011  RH  038%=      5-min Rain = 0
KUM1 112032Z 23013KT 13/M01 A2997 RMK A01 T01301010  RH  038%=      5-min Rain = 0
KUM1 112033Z 23012KT 13/M01 A2997 RMK A01 T01301008  RH  039%=      5-min Rain = 0
KUM1 112034Z 23014KT 13/M01 A2997 RMK A01 T01301008  RH  039%=      5-min Rain = 0
KUM1 112035Z 23013KT 13/M01 A2997 RMK A01 T01301008  RH  039%=      5-min Rain = 0
KUM1 112036Z 23014KT 13/M01 A2997 RMK A01 T01301009  RH  038%=      5-min Rain = 0
KUM1 112037Z 23015KT 13/M01 A2997 RMK A01 T01301009  RH  038%=      5-min Rain = 0
KUM1 112038Z 24015KT 13/M01 A2997 RMK A01 T01301009  RH  038%=      5-min Rain = 0
KUM1 112039Z 23014KT 13/M01 A2997 RMK A01 T01311009  RH  038%=      5-min Rain = 0
KUM1 112040Z 23015KT 13/M01 A2997 RMK A01 T01311009  RH  038%=      5-min Rain = 0
KUM1 112041Z 23016KT 13/M01 A2997 RMK A01 T01311010  RH  038%=      5-min Rain = 0
KUM1 112042Z 24015KT 13/M01 A2997 RMK A01 T01321011  RH  037%=      5-min Rain = 0
KUM1 112043Z 24017KT 13/M01 A2997 RMK A01 T01321011  RH  037%=      5-min Rain = 0
KUM1 112044Z 23016KT 13/M01 A2997 RMK A01 T01331013  RH  036%=      5-min Rain = 0
KUM1 112045Z 23015KT 13/M02 A2997 RMK A01 T01331015  RH  036%=      5-min Rain = 0
KUM1 112046Z 23014KT 13/M01 A2997 RMK A01 T01341013  RH  036%=      5-min Rain = 0
KUM1 112047Z 23015KT 13/M01 A2997 RMK A01 T01341012  RH  037%=      5-min Rain = 0
KUM1 112048Z 23017KT 13/M01 A2997 RMK A01 T01341014  RH  036%=      5-min Rain = 0
KUM1 112049Z 23017KT 13/M01 A2997 RMK A01 T01341014  RH  036%=      5-min Rain = 0
KUM1 112050Z 22015KT 13/M01 A2997 RMK A01 T01341014  RH  036%=      5-min Rain = 0
KUM1 112051Z 23015KT 13/M01 A2997 RMK A01 T01341013  RH  036%=      5-min Rain = 0
KUM1 112052Z 23014KT 13/M01 A2997 RMK A01 T01341014  RH  036%=      5-min Rain = 0
KUM1 112053Z 23014KT 13/M01 A2997 RMK A01 T01341013  RH  036%=      5-min Rain = 0
KUM1 112054Z 23013KT 13/M01 A2997 RMK A01 T01341012  RH  036%=      5-min Rain = 0
KUM1 112055Z 24014G19KT 13/M01 A2997 RMK A01 T01331011  RH  037%=      5-min Rain = 0
KUM1 112056Z 23014KT 13/M01 A2997 RMK A01 T01331012  RH  037%=      5-min Rain = 0
KUM1 112057Z 24011G16KT 13/M01 A2997 RMK A01 T01331010  RH  037%=      5-min Rain = 0
KUM1 112058Z 24012KT 13/M01 A2997 RMK A01 T01331009  RH  038%=      5-min Rain = 0
KUM1 112059Z 24013KT 13/M01 A2997 RMK A01 T01331010  RH  037%=      5-min Rain = 0
KUM1 112100Z 24011KT 13/M01 A2997 RMK A01 T01321011  RH  037%=      5-min Rain = 0
KUM1 112101Z 24011KT 13/M01 A2997 RMK A01 T01331009  RH  038%=      5-min Rain = 0
KUM1 112102Z 24012KT 13/M01 A2997 RMK A01 T01321009  RH  038%=      5-min Rain = 0
KUM1 112103Z 25012KT 13/M01 A2997 RMK A01 T01321008  RH  038%=      5-min Rain = 0
KUM1 112104Z 24012KT 13/M01 A2997 RMK A01 T01311007  RH  039%=      5-min Rain = 0
KUM1 112105Z 24012KT 13/M01 A2997 RMK A01 T01311007  RH  039%=      5-min Rain = 0
KUM1 112106Z 24011KT 13/M01 A2997 RMK A01 T01311007  RH  039%=      5-min Rain = 0
KUM1 112107Z 24011KT 13/M01 A2997 RMK A01 T01311005  RH  039%=      5-min Rain = 0
KUM1 112108Z 24012KT 13/M01 A2997 RMK A01 T01301005  RH  039%=      5-min Rain = 0
KUM1 112109Z 25012KT 13/M01 A2997 RMK A01 T01301005  RH  039%=      5-min Rain = 0
KUM1 112110Z 25011KT 13/M00 A2997 RMK A01 T01301004  RH  040%=      5-min Rain = 0
KUM1 112111Z 24011KT 13/M00 A2997 RMK A01 T01301003  RH  040%=      5-min Rain = 0
KUM1 112112Z 24011KT 13/M00 A2997 RMK A01 T01291003  RH  040%=      5-min Rain = 0
KUM1 112113Z 24010KT 13/M00 A2997 RMK A01 T01291004  RH  040%=      5-min Rain = 0
KUM1 112114Z 24011KT 13/M00 A2997 RMK A01 T01301003  RH  040%=      5-min Rain = 0
KUM1 112115Z 24010KT 13/M00 A2997 RMK A01 T01301002  RH  040%=      5-min Rain = 0
KUM1 112116Z 24011KT 13/M00 A2997 RMK A01 T01291001  RH  041%=      5-min Rain = 0
KUM1 112117Z 23011KT 13/M00 A2997 RMK A01 T01291001  RH  041%=      5-min Rain = 0
KUM1 112118Z 23011KT 13/M00 A2997 RMK A01 T01291002  RH  040%=      5-min Rain = 0
KUM1 112119Z 23010KT 13/M00 A2997 RMK A01 T01301002  RH  040%=      5-min Rain = 0
KUM1 112120Z 23009KT 13/M00 A2997 RMK A01 T01311001  RH  040%=      5-min Rain = 0
KUM1 112121Z 23011KT 13/00 A2997 RMK A01 T01310000  RH  041%=      5-min Rain = 0
KUM1 112122Z 23010KT 13/00 A2997 RMK A01 T013100-0  RH  041%=      5-min Rain = 0
KUM1 112123Z 23009KT 13/00 A2997 RMK A01 T01310002  RH  041%=      5-min Rain = 0
KUM1 112124Z 23009KT 13/00 A2997 RMK A01 T01300002  RH  042%=      5-min Rain = 0
KUM1 112125Z 22009KT 13/00 A2997 RMK A01 T01300002  RH  042%=      5-min Rain = 0
KUM1 112126Z 22009KT 13/00 A2997 RMK A01 T01300003  RH  042%=      5-min Rain = 0
KUM1 112127Z 22008KT 13/01 A2997 RMK A01 T01290005  RH  042%=      5-min Rain = 0
KUM1 112128Z 22008KT 13/00 A2997 RMK A01 T01290003  RH  042%=      5-min Rain = 0
KUM1 112129Z 23006KT 13/01 A2997 RMK A01 T01290005  RH  043%=      5-min Rain = 0
KUM1 112130Z 23009KT 13/00 A2997 RMK A01 T01280004  RH  043%=      5-min Rain = 0
KUM1 112131Z 22008KT 13/00 A2997 RMK A01 T01290003  RH  042%=      5-min Rain = 0
KUM1 112132Z 22008KT 13/00 A2997 RMK A01 T01300003  RH  042%=      5-min Rain = 0
KUM1 112133Z 22008KT 13/00 A2997 RMK A01 T01300004  RH  042%=      5-min Rain = 0
KUM1 112134Z 22007KT 13/01 A2997 RMK A01 T01300006  RH  043%=      5-min Rain = 0
KUM1 112135Z 22007KT 13/01 A2997 RMK A01 T01300007  RH  043%=      5-min Rain = 0
KUM1 112136Z 23008KT 13/01 A2997 RMK A01 T01290007  RH  043%=      5-min Rain = 0
KUM1 112137Z 23007KT 13/01 A2997 RMK A01 T01290008  RH  044%=      5-min Rain = 0
KUM1 112138Z 22007KT 13/01 A2997 RMK A01 T01290007  RH  043%=      5-min Rain = 0
KUM1 112139Z 22008KT 13/01 A2997 RMK A01 T01290008  RH  044%=      5-min Rain = 0
KUM1 112140Z 22009KT 13/01 A2997 RMK A01 T01290007  RH  043%=      5-min Rain = 0
KUM1 112141Z 22008KT 13/01 A2997 RMK A01 T01290009  RH  044%=      5-min Rain = 0
KUM1 112142Z 22009KT 13/01 A2997 RMK A01 T01300011  RH  044%=      5-min Rain = 0
KUM1 112143Z 22008KT 13/01 A2997 RMK A01 T01300010  RH  044%=      5-min Rain = 0
KUM1 112144Z 22009KT 13/01 A2997 RMK A01 T01300011  RH  044%=      5-min Rain = 0
KUM1 112145Z 22010KT 13/01 A2997 RMK A01 T01300008  RH  043%=      5-min Rain = 0
KUM1 112146Z 23011KT 13/01 A2997 RMK A01 T01310008  RH  043%=      5-min Rain = 0
KUM1 112147Z 22011KT 13/01 A2997 RMK A01 T01320006  RH  042%=      5-min Rain = 0
KUM1 112148Z 22010KT 13/01 A2997 RMK A01 T01320006  RH  042%=      5-min Rain = 0
KUM1 112149Z 22009KT 13/01 A2997 RMK A01 T01320009  RH  043%=      5-min Rain = 0
KUM1 112150Z 22010KT 13/01 A2997 RMK A01 T01310009  RH  043%=      5-min Rain = 0
KUM1 112151Z 22010KT 13/01 A2997 RMK A01 T01310008  RH  043%=      5-min Rain = 0
KUM1 112152Z 23010KT 13/01 A2997 RMK A01 T01310008  RH  043%=      5-min Rain = 0
KUM1 112153Z 23010KT 13/01 A2997 RMK A01 T01310006  RH  042%=      5-min Rain = 0
KUM1 112154Z 22010KT 13/01 A2997 RMK A01 T01320005  RH  042%=      5-min Rain = 0
KUM1 112155Z 23009KT 13/01 A2997 RMK A01 T01320007  RH  042%=      5-min Rain = 0
KUM1 112156Z 23009KT 13/01 A2997 RMK A01 T01320008  RH  043%=      5-min Rain = 0
KUM1 112157Z 22009KT 13/01 A2997 RMK A01 T01310007  RH  043%=      5-min Rain = 0
KUM1 112158Z 23011KT 13/01 A2997 RMK A01 T01310006  RH  042%=      5-min Rain = 0
KUM1 112159Z 22010KT 13/00 A2997 RMK A01 T01310004  RH  042%=      5-min Rain = 0
KUM1 112200Z 22011KT 13/00 A2997 RMK A01 T01310003  RH  041%=      5-min Rain = 0
KUM1 112201Z 23011KT 13/00 A2997 RMK A01 T01320003  RH  041%=      5-min Rain = 0
KUM1 112202Z 22012KT 13/00 A2997 RMK A01 T01320004  RH  041%=      5-min Rain = 0
KUM1 112203Z 23013KT 13/00 A2997 RMK A01 T01320002  RH  041%=      5-min Rain = 0
KUM1 112204Z 22011KT 13/00 A2997 RMK A01 T01320002  RH  041%=      5-min Rain = 0
KUM1 112205Z 22011KT 13/00 A2997 RMK A01 T01320003  RH  041%=      5-min Rain = 0
KUM1 112206Z 22011KT 13/00 A2997 RMK A01 T01320002  RH  041%=      5-min Rain = 0
KUM1 112207Z 22011KT 13/00 A2997 RMK A01 T01320002  RH  041%=      5-min Rain = 0
KUM1 112208Z 23010KT 13/00 A2997 RMK A01 T01320001  RH  041%=      5-min Rain = 0
KUM1 112209Z 22010KT 13/00 A2996 RMK A01 T01320001  RH  041%=      5-min Rain = 0
KUM1 112210Z 22011KT 13/00 A2996 RMK A01 T01320002  RH  041%=      5-min Rain = 0
KUM1 112211Z 22010KT 13/00 A2996 RMK A01 T01320002  RH  041%=      5-min Rain = 0
KUM1 112212Z 22010KT 13/00 A2996 RMK A01 T01310002  RH  041%=      5-min Rain = 0
KUM1 112213Z 22010KT 13/00 A2996 RMK A01 T01320001  RH  041%=      5-min Rain = 0
KUM1 112214Z 22010KT 13/00 A2997 RMK A01 T01320003  RH  041%=      5-min Rain = 0
KUM1 112215Z 22009KT 13/00 A2996 RMK A01 T01320003  RH  041%=      5-min Rain = 0
KUM1 112216Z 23010KT 13/00 A2996 RMK A01 T01320003  RH  041%=      5-min Rain = 0
KUM1 112217Z 22009KT 13/00 A2996 RMK A01 T01320001  RH  041%=      5-min Rain = 0
KUM1 112218Z 23009KT 13/00 A2996 RMK A01 T01330002  RH  040%=      5-min Rain = 0
KUM1 112219Z 23010KT 13/00 A2996 RMK A01 T01340001  RH  040%=      5-min Rain = 0
KUM1 112220Z 23010KT 13/00 A2996 RMK A01 T01340001  RH  040%=      5-min Rain = 0
KUM1 112221Z 22010KT 14/00 A2996 RMK A01 T01350000  RH  040%=      5-min Rain = 0
KUM1 112222Z 23009KT 14/00 A2996 RMK A01 T01360000  RH  040%=      5-min Rain = 0
KUM1 112223Z 23009KT 14/00 A2996 RMK A01 T01360001  RH  039%=      5-min Rain = 0
KUM1 112224Z 23010KT 14/00 A2996 RMK A01 T01360001  RH  040%=      5-min Rain = 0
KUM1 112225Z 23010KT 14/00 A2996 RMK A01 T01360002  RH  040%=      5-min Rain = 0
KUM1 112226Z 23008KT 14/00 A2996 RMK A01 T01370002  RH  040%=      5-min Rain = 0
KUM1 112227Z 23009KT 14/00 A2996 RMK A01 T01370003  RH  040%=      5-min Rain = 0
KUM1 112228Z 23009KT 14/00 A2996 RMK A01 T01370003  RH  040%=      5-min Rain = 0
KUM1 112229Z 23009KT 14/00 A2996 RMK A01 T01370002  RH  039%=      5-min Rain = 0
KUM1 112230Z 23010KT 14/00 A2996 RMK A01 T01380001  RH  039%=      5-min Rain = 0
KUM1 112231Z 23010KT 14/00 A2996 RMK A01 T01380000  RH  039%=      5-min Rain = 0
KUM1 112232Z 22011KT 14/00 A2996 RMK A01 T01390000  RH  039%=      5-min Rain = 0
KUM1 112233Z 23011KT 14/00 A2996 RMK A01 T01390000  RH  039%=      5-min Rain = 0
KUM1 112234Z 23009KT 14/00 A2996 RMK A01 T01390001  RH  039%=      5-min Rain = 0
KUM1 112235Z 23010KT 14/00 A2996 RMK A01 T01390002  RH  039%=      5-min Rain = 0
KUM1 112236Z 23010KT 14/00 A2996 RMK A01 T01380001  RH  039%=      5-min Rain = 0
KUM1 112237Z 23010KT 14/00 A2996 RMK A01 T01380003  RH  040%=      5-min Rain = 0
KUM1 112238Z 23009KT 14/00 A2996 RMK A01 T01370004  RH  040%=      5-min Rain = 0
KUM1 112239Z 23009KT 14/00 A2996 RMK A01 T01370003  RH  040%=      5-min Rain = 0
KUM1 112240Z 23008KT 14/00 A2996 RMK A01 T01370002  RH  040%=      5-min Rain = 0
KUM1 112241Z 23008KT 14/00 A2996 RMK A01 T01370004  RH  040%=      5-min Rain = 0
KUM1 112242Z 23008KT 14/00 A2996 RMK A01 T01360004  RH  040%=      5-min Rain = 0
KUM1 112243Z 23008KT 14/00 A2996 RMK A01 T01360003  RH  040%=      5-min Rain = 0
KUM1 112244Z 23008KT 14/00 A2996 RMK A01 T01350004  RH  041%=      5-min Rain = 0
KUM1 112245Z 23008KT 14/01 A2996 RMK A01 T01350005  RH  041%=      5-min Rain = 0
KUM1 112246Z 23008KT 13/00 A2996 RMK A01 T01340003  RH  040%=      5-min Rain = 0
KUM1 112247Z 23007KT 13/00 A2996 RMK A01 T01340003  RH  041%=      5-min Rain = 0
KUM1 112248Z 23007KT 13/00 A2996 RMK A01 T01340004  RH  041%=      5-min Rain = 0
KUM1 112249Z 24007KT 13/00 A2996 RMK A01 T01340004  RH  041%=      5-min Rain = 0
KUM1 112250Z 24006KT 13/00 A2996 RMK A01 T01330004  RH  041%=      5-min Rain = 0
KUM1 112251Z 24006KT 13/01 A2996 RMK A01 T01320005  RH  042%=      5-min Rain = 0
KUM1 112252Z 24007KT 13/00 A2996 RMK A01 T01320003  RH  041%=      5-min Rain = 0
KUM1 112253Z 24006KT 13/00 A2996 RMK A01 T01310004  RH  042%=      5-min Rain = 0
KUM1 112254Z 24006KT 13/00 A2996 RMK A01 T01310003  RH  041%=      5-min Rain = 0
KUM1 112255Z 24006KT 13/00 A2996 RMK A01 T01310003  RH  042%=      5-min Rain = 0
KUM1 112256Z 24006KT 13/00 A2996 RMK A01 T01300003  RH  042%=      5-min Rain = 0
KUM1 112257Z 24005KT 13/00 A2996 RMK A01 T01290003  RH  042%=      5-min Rain = 0
KUM1 112258Z 23005KT 13/00 A2996 RMK A01 T01290002  RH  042%=      5-min Rain = 0
KUM1 112259Z 23005KT 13/00 A2996 RMK A01 T01290002  RH  042%=      5-min Rain = 0
KUM1 112300Z 23005KT 13/00 A2996 RMK A01 T01280002  RH  042%=      5-min Rain = 0
KUM1 112301Z 23006KT 13/00 A2996 RMK A01 T01280000  RH  042%=      5-min Rain = 0
KUM1 112302Z 23005KT 13/00 A2995 RMK A01 T01280001  RH  042%=      5-min Rain = 0
KUM1 112303Z 23005KT 13/00 A2996 RMK A01 T01280001  RH  042%=      5-min Rain = 0
KUM1 112304Z 23005KT 13/00 A2996 RMK A01 T01270001  RH  042%=      5-min Rain = 0
KUM1 112305Z 23005KT 13/00 A2996 RMK A01 T01260000  RH  042%=      5-min Rain = 0
KUM1 112306Z 23006KT 13/00 A2996 RMK A01 T012600-0  RH  042%=      5-min Rain = 0
KUM1 112307Z 23007KT 13/M00 A2996 RMK A01 T01261001  RH  041%=      5-min Rain = 0
KUM1 112308Z 24006KT 13/M00 A2996 RMK A01 T01261001  RH  042%=      5-min Rain = 0
KUM1 112309Z 23006KT 13/M00 A2996 RMK A01 T01261001  RH  042%=      5-min Rain = 0
KUM1 112310Z 23007KT 13/M00 A2996 RMK A01 T01261001  RH  042%=      5-min Rain = 0
KUM1 112311Z 23006KT 13/M00 A2996 RMK A01 T01251002  RH  042%=      5-min Rain = 0
KUM1 112312Z 23007KT 12/M00 A2996 RMK A01 T01241002  RH  042%=      5-min Rain = 0
KUM1 112313Z 23007KT 12/M00 A2996 RMK A01 T01241003  RH  042%=      5-min Rain = 0
KUM1 112314Z 23007KT 12/M00 A2996 RMK A01 T01231002  RH  042%=      5-min Rain = 0
KUM1 112315Z 23007KT 12/M00 A2996 RMK A01 T01221002  RH  042%=      5-min Rain = 0
KUM1 112316Z 23007KT 12/M00 A2996 RMK A01 T01211003  RH  042%=      5-min Rain = 0
KUM1 112317Z 23007KT 12/M00 A2996 RMK A01 T01201003  RH  043%=      5-min Rain = 0
KUM1 112318Z 23007KT 12/M00 A2996 RMK A01 T01191003  RH  043%=      5-min Rain = 0
KUM1 112319Z 24008KT 12/M00 A2996 RMK A01 T01181004  RH  043%=      5-min Rain = 0
KUM1 112320Z 23008KT 12/M01 A2996 RMK A01 T01171005  RH  043%=      5-min Rain = 0
KUM1 112321Z 23008KT 12/M01 A2996 RMK A01 T01171005  RH  043%=      5-min Rain = 0
KUM1 112322Z 23007KT 12/M01 A2996 RMK A01 T01171005  RH  043%=      5-min Rain = 0
KUM1 112323Z 23008KT 12/M01 A2996 RMK A01 T01161006  RH  043%=      5-min Rain = 0
KUM1 112324Z 23008KT 12/M01 A2996 RMK A01 T01151006  RH  043%=      5-min Rain = 0
KUM1 112325Z 23008KT 11/M01 A2996 RMK A01 T01141005  RH  044%=      5-min Rain = 0
KUM1 112326Z 23007KT 11/M01 A2996 RMK A01 T01141005  RH  044%=      5-min Rain = 0
KUM1 112327Z 24007KT 11/M01 A2996 RMK A01 T01131005  RH  044%=      5-min Rain = 0
KUM1 112328Z 24006KT 11/M01 A2996 RMK A01 T01121005  RH  044%=      5-min Rain = 0
KUM1 112329Z 23007KT 11/M01 A2996 RMK A01 T01121005  RH  044%=      5-min Rain = 0
KUM1 112330Z 23007KT 11/M01 A2996 RMK A01 T01111005  RH  045%=      5-min Rain = 0
KUM1 112331Z 22008KT 11/M01 A2996 RMK A01 T01111005  RH  045%=      5-min Rain = 0
KUM1 112332Z 22007KT 11/M00 A2996 RMK A01 T01101004  RH  045%=      5-min Rain = 0
KUM1 112333Z 23008KT 11/M00 A2996 RMK A01 T01081004  RH  046%=      5-min Rain = 0
KUM1 112334Z 22007KT 11/M01 A2996 RMK A01 T01071005  RH  046%=      5-min Rain = 0
KUM1 112335Z 23007KT 11/M01 A2996 RMK A01 T01071005  RH  046%=      5-min Rain = 0
KUM1 112336Z 23007KT 11/M01 A2996 RMK A01 T01071005  RH  046%=      5-min Rain = 0
KUM1 112337Z 23007KT 11/M01 A2996 RMK A01 T01061005  RH  046%=      5-min Rain = 0
KUM1 112338Z 23007KT 10/M01 A2996 RMK A01 T01041005  RH  047%=      5-min Rain = 0
KUM1 112339Z 22008KT 10/M01 A2996 RMK A01 T01041005  RH  047%=      5-min Rain = 0
KUM1 112340Z 22008KT 10/M01 A2996 RMK A01 T01041005  RH  047%=      5-min Rain = 0
KUM1 112341Z 22008KT 10/M01 A2996 RMK A01 T01041005  RH  047%=      5-min Rain = 0
KUM1 112342Z 22008KT 10/M01 A2996 RMK A01 T01021006  RH  047%=      5-min Rain = 0
KUM1 112343Z 22008KT 10/M01 A2996 RMK A01 T01001007  RH  047%=      5-min Rain = 0
KUM1 112344Z 22009KT 10/M01 A2996 RMK A01 T00991007  RH  048%=      5-min Rain = 0
KUM1 112345Z 22009KT 10/M01 A2996 RMK A01 T00981008  RH  048%=      5-min Rain = 0
KUM1 112346Z 22009KT 10/M01 A2996 RMK A01 T00981009  RH  047%=      5-min Rain = 0
KUM1 112347Z 22010KT 10/M01 A2996 RMK A01 T00991010  RH  047%=      5-min Rain = 0
KUM1 112348Z 22010KT 10/M01 A2996 RMK A01 T00991011  RH  046%=      5-min Rain = 0
KUM1 112349Z 22010KT 10/M01 A2996 RMK A01 T00991012  RH  046%=      5-min Rain = 0
KUM1 112350Z 22011KT 10/M01 A2996 RMK A01 T01001014  RH  045%=      5-min Rain = 0
KUM1 112351Z 22011KT 10/M02 A2996 RMK A01 T01021015  RH  044%=      5-min Rain = 0
KUM1 112352Z 22011KT 10/M02 A2996 RMK A01 T01041016  RH  043%=      5-min Rain = 0
KUM1 112353Z 22010KT 11/M02 A2996 RMK A01 T01061016  RH  042%=      5-min Rain = 0
KUM1 112354Z 22011KT 11/M02 A2996 RMK A01 T01061017  RH  042%=      5-min Rain = 0
KUM1 112355Z 22012KT 11/M02 A2996 RMK A01 T01081018  RH  041%=      5-min Rain = 0
KUM1 112356Z 22013KT 11/M02 A2996 RMK A01 T01091018  RH  041%=      5-min Rain = 0
KUM1 112357Z 22012KT 11/M02 A2996 RMK A01 T01091019  RH  041%=      5-min Rain = 0
KUM1 112358Z 22014KT 11/M02 A2995 RMK A01 T01101019  RH  040%=      5-min Rain = 0
KUM1 112359Z 22013KT 11/M02 A2995 RMK A01 T01101020  RH  040%=      5-min Rain = 0
KUM1 120000Z 22012KT 11/M02 A2996 RMK A01 T01111019  RH  040%=      5-min Rain = 0
KUM1 120001Z 22012KT 11/M02 A2996 RMK A01 T01111020  RH  040%=      5-min Rain = 0
KUM1 120002Z 22012KT 11/M02 A2996 RMK A01 T01111021  RH  040%=      5-min Rain = 0
KUM1 120003Z 22011KT 11/M02 A2996 RMK A01 T01121020  RH  040%=      5-min Rain = 0
KUM1 120004Z 22012KT 11/M02 A2996 RMK A01 T01121021  RH  039%=      5-min Rain = 0
KUM1 120005Z 22012KT 11/M02 A2996 RMK A01 T01131021  RH  039%=      5-min Rain = 0
KUM1 120006Z 22012KT 12/M02 A2996 RMK A01 T01151022  RH  039%=      5-min Rain = 0
KUM1 120007Z 22012KT 12/M02 A2996 RMK A01 T01161022  RH  038%=      5-min Rain = 0
KUM1 120008Z 22013KT 12/M02 A2996 RMK A01 T01181021  RH  038%=      5-min Rain = 0
KUM1 120009Z 23013KT 12/M02 A2995 RMK A01 T01181022  RH  038%=      5-min Rain = 0
KUM1 120010Z 23013KT 12/M02 A2995 RMK A01 T01181021  RH  038%=      5-min Rain = 0
KUM1 120011Z 23013KT 12/M02 A2996 RMK A01 T01181021  RH  038%=      5-min Rain = 0
KUM1 120012Z 23011KT 12/M02 A2996 RMK A01 T01171022  RH  038%=      5-min Rain = 0
KUM1 120013Z 22011KT 12/M02 A2996 RMK A01 T01171022  RH  038%=      5-min Rain = 0
KUM1 120014Z 23011KT 12/M02 A2996 RMK A01 T01171022  RH  038%=      5-min Rain = 0
KUM1 120015Z 23011KT 12/M02 A2996 RMK A01 T01171022  RH  038%=      5-min Rain = 0
KUM1 120016Z 23011KT 12/M02 A2996 RMK A01 T01161022  RH  038%=      5-min Rain = 0
KUM1 120017Z 23011KT 12/M02 A2996 RMK A01 T01161022  RH  038%=      5-min Rain = 0
KUM1 120018Z 23011KT 12/M02 A2996 RMK A01 T01151021  RH  039%=      5-min Rain = 0
KUM1 120019Z 23010KT 11/M02 A2995 RMK A01 T01131021  RH  039%=      5-min Rain = 0
KUM1 120020Z 23010KT 11/M02 A2995 RMK A01 T01121021  RH  039%=      5-min Rain = 0
KUM1 120021Z 24011KT 11/M02 A2995 RMK A01 T01101021  RH  040%=      5-min Rain = 0
KUM1 120022Z 24011KT 11/M02 A2996 RMK A01 T01091021  RH  040%=      5-min Rain = 0
KUM1 120023Z 24010KT 11/M02 A2996 RMK A01 T01081021  RH  041%=      5-min Rain = 0
KUM1 120024Z 24010KT 11/M02 A2996 RMK A01 T01071021  RH  041%=      5-min Rain = 0
KUM1 120025Z 24010KT 11/M02 A2996 RMK A01 T01061021  RH  041%=      5-min Rain = 0
KUM1 120026Z 24010KT 11/M02 A2996 RMK A01 T01061021  RH  041%=      5-min Rain = 0
KUM1 120027Z 24010KT 11/M02 A2996 RMK A01 T01051021  RH  041%=      5-min Rain = 0
KUM1 120028Z 24011KT 10/M02 A2996 RMK A01 T01041021  RH  042%=      5-min Rain = 0
KUM1 120029Z 24011KT 10/M02 A2996 RMK A01 T01041021  RH  041%=      5-min Rain = 0
KUM1 120030Z 24011KT 11/M02 A2996 RMK A01 T01051021  RH  041%=      5-min Rain = 0
KUM1 120031Z 23011KT 11/M02 A2996 RMK A01 T01051021  RH  041%=      5-min Rain = 0
KUM1 120032Z 23010KT 11/M02 A2996 RMK A01 T01061021  RH  041%=      5-min Rain = 0
KUM1 120033Z 23010KT 11/M02 A2996 RMK A01 T01061020  RH  041%=      5-min Rain = 0
KUM1 120034Z 23010KT 11/M02 A2996 RMK A01 T01061020  RH  041%=      5-min Rain = 0
KUM1 120035Z 24010KT 11/M02 A2996 RMK A01 T01061020  RH  041%=      5-min Rain = 0
KUM1 120036Z 24009KT 11/M02 A2997 RMK A01 T01071020  RH  041%=      5-min Rain = 0
KUM1 120037Z 24008KT 11/M02 A2997 RMK A01 T01071019  RH  041%=      5-min Rain = 0
KUM1 120038Z 24008KT 11/M02 A2997 RMK A01 T01061020  RH  042%=      5-min Rain = 0
KUM1 120039Z 24008KT 11/M02 A2997 RMK A01 T01061019  RH  042%=      5-min Rain = 0
KUM1 120040Z 24007KT 11/M02 A2997 RMK A01 T01051019  RH  042%=      5-min Rain = 0
KUM1 120041Z 24007KT 10/M02 A2997 RMK A01 T01041019  RH  042%=      5-min Rain = 0
KUM1 120042Z 24008KT 10/M02 A2997 RMK A01 T01031019  RH  043%=      5-min Rain = 0
KUM1 120043Z 24008KT 10/M02 A2997 RMK A01 T01021018  RH  043%=      5-min Rain = 0
KUM1 120044Z 23009KT 10/M02 A2997 RMK A01 T01011018  RH  044%=      5-min Rain = 0
KUM1 120045Z 23009KT 10/M02 A2997 RMK A01 T01001018  RH  044%=      5-min Rain = 0
KUM1 120046Z 23008KT 10/M02 A2997 RMK A01 T01011018  RH  044%=      5-min Rain = 0
KUM1 120047Z 24009KT 10/M02 A2997 RMK A01 T01011018  RH  043%=      5-min Rain = 0
KUM1 120048Z 23008KT 10/M02 A2996 RMK A01 T01011018  RH  043%=      5-min Rain = 0
KUM1 120049Z 23008KT 10/M02 A2996 RMK A01 T01011017  RH  044%=      5-min Rain = 0
KUM1 120050Z 23008KT 10/M02 A2996 RMK A01 T01011017  RH  044%=      5-min Rain = 0
KUM1 120051Z 23008KT 10/M02 A2996 RMK A01 T01011017  RH  043%=      5-min Rain = 0
KUM1 120052Z 22009KT 10/M02 A2996 RMK A01 T01031017  RH  043%=      5-min Rain = 0
KUM1 120053Z 22010KT 10/M02 A2996 RMK A01 T01041017  RH  043%=      5-min Rain = 0
KUM1 120054Z 22010KT 11/M02 A2996 RMK A01 T01051016  RH  043%=      5-min Rain = 0
KUM1 120055Z 22009KT 11/M02 A2996 RMK A01 T01061016  RH  043%=      5-min Rain = 0
KUM1 120056Z 22009KT 11/M02 A2996 RMK A01 T01051016  RH  043%=      5-min Rain = 0
KUM1 120057Z 22008KT 10/M02 A2996 RMK A01 T01031016  RH  043%=      5-min Rain = 0
KUM1 120058Z 22008KT 10/M02 A2996 RMK A01 T01011017  RH  044%=      5-min Rain = 0
KUM1 120059Z 23008KT 10/M02 A2996 RMK A01 T01001017  RH  044%=      5-min Rain = 0
KUM1 120100Z 23007KT 10/M02 A2996 RMK A01 T01001016  RH  044%=      5-min Rain = 0
KUM1 120101Z 23007KT 10/M02 A2996 RMK A01 T01011016  RH  044%=      5-min Rain = 0
KUM1 120102Z 23006KT 10/M02 A2997 RMK A01 T01021016  RH  044%=      5-min Rain = 0
KUM1 120103Z 24006KT 10/M02 A2997 RMK A01 T01021015  RH  044%=      5-min Rain = 0
KUM1 120104Z 24006KT 10/M02 A2997 RMK A01 T01021015  RH  044%=      5-min Rain = 0
KUM1 120105Z 25006KT 10/M02 A2997 RMK A01 T01021015  RH  044%=      5-min Rain = 0
KUM1 120106Z 24006KT 10/M01 A2997 RMK A01 T01011014  RH  045%=      5-min Rain = 0
KUM1 120107Z 23007KT 10/M01 A2997 RMK A01 T01001014  RH  045%=      5-min Rain = 0
KUM1 120108Z 24007KT 10/M01 A2997 RMK A01 T00991014  RH  045%=      5-min Rain = 0
KUM1 120109Z 24006KT 10/M01 A2997 RMK A01 T00981014  RH  046%=      5-min Rain = 0
KUM1 120110Z 24005KT 10/M01 A2997 RMK A01 T00961013  RH  046%=      5-min Rain = 0
KUM1 120111Z 25004KT 10/M01 A2998 RMK A01 T00951014  RH  047%=      5-min Rain = 0
KUM1 120112Z 27004KT 09/M01 A2998 RMK A01 T00941014  RH  047%=      5-min Rain = 0
KUM1 120113Z 32005KT 09/M01 A2998 RMK A01 T00921014  RH  048%=      5-min Rain = 0
KUM1 120114Z 35010KT 09/M01 A2999 RMK A01 T00881013  RH  049%=      5-min Rain = 0
KUM1 120115Z 35009KT 08/M02 A2999 RMK A01 T00821016  RH  050%=      5-min Rain = 0
KUM1 120116Z 34008KT 08/M02 A2999 RMK A01 T00781016  RH  051%=      5-min Rain = 0
KUM1 120117Z 33008KT 08/M01 A2999 RMK A01 T00791014  RH  052%=      5-min Rain = 0
KUM1 120118Z 32006KT 09/M01 A2999 RMK A01 T00881012  RH  050%=      5-min Rain = 0
KUM1 120119Z 31005KT 09/M01 A2999 RMK A01 T00941012  RH  048%=      5-min Rain = 0
KUM1 120120Z 29004KT 10/M01 A2999 RMK A01 T00961013  RH  046%=      5-min Rain = 0
KUM1 120121Z 27004KT 10/M01 A2998 RMK A01 T00981013  RH  046%=      5-min Rain = 0
KUM1 120122Z 25004KT 10/M01 A2998 RMK A01 T00981013  RH  046%=      5-min Rain = 0
KUM1 120123Z 22004KT 10/M01 A2998 RMK A01 T00971014  RH  046%=      5-min Rain = 0
KUM1 120124Z 22004KT 10/M01 A2998 RMK A01 T00971014  RH  046%=      5-min Rain = 0
KUM1 120125Z 22003KT 10/M01 A2998 RMK A01 T00971014  RH  046%=      5-min Rain = 0
KUM1 120126Z 23003KT 10/M02 A2998 RMK A01 T00951015  RH  046%=      5-min Rain = 0
KUM1 120127Z 24003KT 09/M02 A2998 RMK A01 T00931017  RH  046%=      5-min Rain = 0
KUM1 120128Z 27002KT 09/M02 A2998 RMK A01 T00921015  RH  047%=      5-min Rain = 0
KUM1 120129Z 27001KT 09/M02 A2999 RMK A01 T00921015  RH  047%=      5-min Rain = 0
KUM1 120130Z 31001KT 09/M01 A2999 RMK A01 T00931014  RH  047%=      5-min Rain = 0
KUM1 120131Z 33003KT 09/M01 A2999 RMK A01 T00931014  RH  047%=      5-min Rain = 0
KUM1 120132Z 33003KT 09/M01 A2999 RMK A01 T00921013  RH  048%=      5-min Rain = 0
KUM1 120133Z 33003KT 09/M01 A2999 RMK A01 T00881013  RH  049%=      5-min Rain = 0
KUM1 120134Z 34003KT 09/M01 A2999 RMK A01 T00861012  RH  050%=      5-min Rain = 0
KUM1 120135Z 35002KT 08/M01 A2999 RMK A01 T00831011  RH  052%=      5-min Rain = 0
KUM1 120136Z 35000KT 08/M01 A2999 RMK A01 T00801011  RH  053%=      5-min Rain = 0
KUM1 120137Z 30001KT 08/M01 A2999 RMK A01 T00771012  RH  053%=      5-min Rain = 0
KUM1 120138Z 30001KT 08/M01 A30 RMK A01 T00761013  RH  053%=      5-min Rain = 0
KUM1 120139Z 32001KT 08/M01 A30 RMK A01 T00761013  RH  053%=      5-min Rain = 0
KUM1 120140Z 36003KT 08/M01 A30 RMK A01 T00761013  RH  053%=      5-min Rain = 0
KUM1 120141Z 01003KT 08/M01 A30 RMK A01 T00761013  RH  053%=      5-min Rain = 0
KUM1 120142Z 02004KT 08/M01 A3001 RMK A01 T00761013  RH  053%=      5-min Rain = 0
KUM1 120143Z 03004KT 08/M01 A3001 RMK A01 T00751014  RH  053%=      5-min Rain = 0
KUM1 120144Z 03004KT 08/M02 A3001 RMK A01 T00751015  RH  053%=      5-min Rain = 0
KUM1 120145Z 06003KT 08/M02 A3001 RMK A01 T00751015  RH  053%=      5-min Rain = 0
KUM1 120146Z 06003KT 08/M02 A3001 RMK A01 T00751017  RH  052%=      5-min Rain = 0
KUM1 120147Z 06003KT 08/M02 A3001 RMK A01 T00751018  RH  052%=      5-min Rain = 0
KUM1 120148Z 04005KT 08/M02 A3001 RMK A01 T00751017  RH  052%=      5-min Rain = 0
KUM1 120149Z 04006KT 08/M02 A3001 RMK A01 T00751017  RH  052%=      5-min Rain = 0
KUM1 120150Z 04007KT 07/M02 A3001 RMK A01 T00731016  RH  053%=      5-min Rain = 0
KUM1 120151Z 03007KT 07/M02 A3001 RMK A01 T00681016  RH  055%=      5-min Rain = 0
KUM1 120152Z 03006KT 07/M02 A3001 RMK A01 T00651016  RH  056%=      5-min Rain = 0
KUM1 120153Z 03005KT 06/M02 A3001 RMK A01 T00631016  RH  057%=      5-min Rain = 0
KUM1 120154Z 03005KT 06/M02 A3001 RMK A01 T00631016  RH  057%=      5-min Rain = 0
KUM1 120155Z 03005KT 06/M02 A3001 RMK A01 T00621017  RH  057%=      5-min Rain = 0
KUM1 120156Z 03006KT 06/M02 A3001 RMK A01 T00631017  RH  057%=      5-min Rain = 0
KUM1 120157Z 02007KT 06/M02 A3001 RMK A01 T00621018  RH  056%=      5-min Rain = 0
KUM1 120158Z 02008KT 06/M02 A3001 RMK A01 T00631018  RH  056%=      5-min Rain = 0
KUM1 120159Z 01009KT 06/M02 A3001 RMK A01 T00621018  RH  057%=      5-min Rain = 0
KUM1 120200Z 01008KT 06/M02 A3001 RMK A01 T00601018  RH  057%=      5-min Rain = 0
KUM1 120201Z 01007KT 06/M02 A3001 RMK A01 T00591018  RH  057%=      5-min Rain = 0
KUM1 120202Z 01007KT 06/M02 A3001 RMK A01 T00591018  RH  058%=      5-min Rain = 0
KUM1 120203Z 01007KT 06/M02 A3001 RMK A01 T00591018  RH  058%=      5-min Rain = 0
KUM1 120204Z 02006KT 06/M02 A30 RMK A01 T00581019  RH  058%=      5-min Rain = 0
KUM1 120205Z 01005KT 06/M02 A30 RMK A01 T00581019  RH  058%=      5-min Rain = 0
KUM1 120206Z 00004KT 06/M02 A30 RMK A01 T00571019  RH  058%=      5-min Rain = 0
KUM1 120207Z 00004KT 06/M02 A30 RMK A01 T00571019  RH  058%=      5-min Rain = 0
KUM1 120208Z 00004KT 06/M02 A3001 RMK A01 T00571019  RH  058%=      5-min Rain = 0
KUM1 120209Z 01005KT 06/M02 A3001 RMK A01 T00581019  RH  058%=      5-min Rain = 0
KUM1 120210Z 01005KT 06/M02 A3001 RMK A01 T00571020  RH  058%=      5-min Rain = 0
KUM1 120211Z 01004KT 06/M02 A3001 RMK A01 T00591020  RH  057%=      5-min Rain = 0
KUM1 120212Z 02004KT 06/M02 A3001 RMK A01 T00601020  RH  056%=      5-min Rain = 0
KUM1 120213Z 00003KT 06/M02 A3001 RMK A01 T00601020  RH  056%=      5-min Rain = 0
KUM1 120214Z 00002KT 06/M02 A3001 RMK A01 T00591020  RH  057%=      5-min Rain = 0
KUM1 120215Z 00002KT 06/M02 A3001 RMK A01 T00581020  RH  057%=      5-min Rain = 0
KUM1 120216Z 00003KT 06/M02 A3001 RMK A01 T00561021  RH  057%=      5-min Rain = 0
KUM1 120217Z 00002KT 06/M02 A30 RMK A01 T00561021  RH  058%=      5-min Rain = 0
KUM1 120218Z 00001KT 06/M02 A30 RMK A01 T00551020  RH  059%=      5-min Rain = 0
KUM1 120219Z 00000KT 05/M02 A30 RMK A01 T00521022  RH  059%=      5-min Rain = 0
KUM1 120220Z 00000KT 05/M02 A30 RMK A01 T00511023  RH  059%=      5-min Rain = 0
KUM1 120221Z 00000KT 05/M02 A30 RMK A01 T00511022  RH  059%=      5-min Rain = 0
KUM1 120222Z 00001KT 05/M02 A30 RMK A01 T00541020  RH  059%=      5-min Rain = 0
KUM1 120223Z 25001KT 05/M02 A30 RMK A01 T00541021  RH  058%=      5-min Rain = 0
KUM1 120224Z 20002KT 05/M02 A30 RMK A01 T00521024  RH  058%=      5-min Rain = 0
KUM1 120225Z 20002KT 05/M03 A30 RMK A01 T00491027  RH  058%=      5-min Rain = 0
KUM1 120226Z 20003KT 05/M03 A30 RMK A01 T00461028  RH  058%=      5-min Rain = 0
KUM1 120227Z 20003KT 04/M03 A30 RMK A01 T00441028  RH  059%=      5-min Rain = 0
KUM1 120228Z 21003KT 04/M03 A30 RMK A01 T00421029  RH  060%=      5-min Rain = 0
KUM1 120229Z 21003KT 04/M03 A30 RMK A01 T00411028  RH  061%=      5-min Rain = 0
KUM1 120230Z 21004KT 04/M03 A30 RMK A01 T00411027  RH  061%=      5-min Rain = 0
KUM1 120231Z 22003KT 04/M03 A30 RMK A01 T00421026  RH  062%=      5-min Rain = 0
KUM1 120232Z 22003KT 04/M03 A30 RMK A01 T00421025  RH  062%=      5-min Rain = 0
KUM1 120233Z 23002KT 04/M03 A30 RMK A01 T00411025  RH  062%=      5-min Rain = 0
KUM1 120234Z 24002KT 04/M02 A30 RMK A01 T00401024  RH  063%=      5-min Rain = 0
KUM1 120235Z 27002KT 04/M02 A30 RMK A01 T00401023  RH  063%=      5-min Rain = 0
KUM1 120236Z 28002KT 04/M02 A30 RMK A01 T00421022  RH  063%=      5-min Rain = 0
KUM1 120237Z 28002KT 04/M02 A30 RMK A01 T00431021  RH  063%=      5-min Rain = 0
KUM1 120238Z 28002KT 04/M02 A30 RMK A01 T00421021  RH  063%=      5-min Rain = 0
KUM1 120239Z 28002KT 04/M02 A30 RMK A01 T00421022  RH  063%=      5-min Rain = 0
KUM1 120240Z 28002KT 04/M02 A30 RMK A01 T00421022  RH  063%=      5-min Rain = 0
KUM1 120241Z 28001KT 04/M02 A30 RMK A01 T00421022  RH  063%=      5-min Rain = 0
KUM1 120242Z 28001KT 04/M02 A30 RMK A01 T00421023  RH  063%=      5-min Rain = 0
KUM1 120243Z 28000KT 04/M02 A30 RMK A01 T00411023  RH  063%=      5-min Rain = 0
KUM1 120244Z 00000KT 04/M02 A30 RMK A01 T00401023  RH  064%=      5-min Rain = 0
KUM1 120245Z 00000KT 04/M02 A30 RMK A01 T00381024  RH  064%=      5-min Rain = 0
KUM1 120246Z 00000KT 04/M02 A30 RMK A01 T00381024  RH  064%=      5-min Rain = 0
KUM1 120247Z 00000KT 04/M02 A30 RMK A01 T00381023  RH  065%=      5-min Rain = 0
KUM1 120248Z 00001KT 04/M02 A30 RMK A01 T00381022  RH  065%=      5-min Rain = 0
KUM1 120249Z 00002KT 04/M02 A30 RMK A01 T00381023  RH  064%=      5-min Rain = 0
KUM1 120250Z 00002KT 04/M02 A30 RMK A01 T00371024  RH  064%=      5-min Rain = 0
KUM1 120251Z 00002KT 04/M02 A30 RMK A01 T00371024  RH  064%=      5-min Rain = 0
KUM1 120252Z 00002KT 04/M02 A30 RMK A01 T00371024  RH  064%=      5-min Rain = 0
KUM1 120253Z 00002KT 04/M02 A30 RMK A01 T00371024  RH  064%=      5-min Rain = 0
KUM1 120254Z 00002KT 04/M03 A3001 RMK A01 T00371025  RH  064%=      5-min Rain = 0
KUM1 120255Z 00002KT 04/M03 A3001 RMK A01 T00371025  RH  064%=      5-min Rain = 0
KUM1 120256Z 00001KT 04/M03 A30 RMK A01 T00371025  RH  064%=      5-min Rain = 0
KUM1 120257Z 00000KT 04/M03 A30 RMK A01 T00371025  RH  064%=      5-min Rain = 0
KUM1 120258Z 00000KT 04/M03 A30 RMK A01 T00371025  RH  064%=      5-min Rain = 0
KUM1 120259Z 00000KT 04/M02 A30 RMK A01 T00371024  RH  064%=      5-min Rain = 0
KUM1 120300Z 00000KT 04/M02 A30 RMK A01 T00401023  RH  064%=      5-min Rain = 0
KUM1 120301Z 00000KT 04/M02 A30 RMK A01 T00411023  RH  063%=      5-min Rain = 0
KUM1 120302Z 00000KT 04/M03 A30 RMK A01 T00411027  RH  061%=      5-min Rain = 0
KUM1 120303Z 00000KT 04/M03 A30 RMK A01 T00381030  RH  061%=      5-min Rain = 0
KUM1 120304Z 00000KT 04/M03 A30 RMK A01 T00371031  RH  061%=      5-min Rain = 0
KUM1 120305Z 00002KT 04/M03 A30 RMK A01 T00361033  RH  061%=      5-min Rain = 0
KUM1 120306Z 36003KT 04/M03 A3001 RMK A01 T00351033  RH  061%=      5-min Rain = 0
KUM1 120307Z 35007KT 04/M03 A3001 RMK A01 T00361029  RH  063%=      5-min Rain = 0
KUM1 120308Z 00008KT 04/M02 A3001 RMK A01 T00401024  RH  063%=      5-min Rain = 0
KUM1 120309Z 01009KT 05/M02 A3001 RMK A01 T00451022  RH  062%=      5-min Rain = 0
KUM1 120310Z 01008KT 05/M02 A3001 RMK A01 T00481023  RH  060%=      5-min Rain = 0
KUM1 120311Z 01009KT 05/M02 A3001 RMK A01 T00531023  RH  058%=      5-min Rain = 0
KUM1 120312Z 02010KT 06/M02 A3001 RMK A01 T00571024  RH  056%=      5-min Rain = 0
KUM1 120313Z 02010KT 06/M03 A3001 RMK A01 T00581025  RH  055%=      5-min Rain = 0
KUM1 120314Z 02010KT 06/M03 A3001 RMK A01 T00571025  RH  055%=      5-min Rain = 0
KUM1 120315Z 02009KT 06/M03 A3001 RMK A01 T00561026  RH  056%=      5-min Rain = 0
KUM1 120316Z 01009KT 06/M03 A3001 RMK A01 T00551026  RH  056%=      5-min Rain = 0
KUM1 120317Z 01009KT 05/M03 A3001 RMK A01 T00521027  RH  057%=      5-min Rain = 0
KUM1 120318Z 01009KT 05/M03 A3001 RMK A01 T00491028  RH  058%=      5-min Rain = 0
KUM1 120319Z 02009KT 05/M03 A3001 RMK A01 T00461028  RH  059%=      5-min Rain = 0
KUM1 120320Z 02009KT 05/M03 A3001 RMK A01 T00461028  RH  059%=      5-min Rain = 0
KUM1 120321Z 02009KT 05/M03 A3001 RMK A01 T00461027  RH  059%=      5-min Rain = 0
KUM1 120322Z 02009KT 05/M03 A3001 RMK A01 T00461028  RH  059%=      5-min Rain = 0
KUM1 120323Z 02010KT 05/M03 A3001 RMK A01 T00461028  RH  059%=      5-min Rain = 0
KUM1 120324Z 02011KT 05/M03 A3001 RMK A01 T00461027  RH  059%=      5-min Rain = 0
KUM1 120325Z 02011KT 05/M03 A3001 RMK A01 T00451027  RH  059%=      5-min Rain = 0
KUM1 120326Z 03011KT 05/M03 A3001 RMK A01 T00451026  RH  060%=      5-min Rain = 0
KUM1 120327Z 03011KT 05/M03 A3001 RMK A01 T00451026  RH  060%=      5-min Rain = 0
KUM1 120328Z 03012KT 05/M03 A3001 RMK A01 T00451025  RH  061%=      5-min Rain = 0
KUM1 120329Z 03012KT 04/M03 A3001 RMK A01 T00441025  RH  061%=      5-min Rain = 0
KUM1 120330Z 03011KT 04/M02 A3001 RMK A01 T00441024  RH  061%=      5-min Rain = 0
KUM1 120331Z 03011KT 04/M02 A3001 RMK A01 T00441024  RH  061%=      5-min Rain = 0
KUM1 120332Z 04012KT 04/M02 A3001 RMK A01 T00441023  RH  062%=      5-min Rain = 0
KUM1 120333Z 04013KT 05/M02 A3001 RMK A01 T00451023  RH  061%=      5-min Rain = 0
KUM1 120334Z 04012KT 05/M02 A3001 RMK A01 T00481023  RH  060%=      5-min Rain = 0
KUM1 120335Z 05014KT 05/M02 A3001 RMK A01 T00501024  RH  059%=      5-min Rain = 0
KUM1 120336Z 05013KT 05/M03 A3001 RMK A01 T00521025  RH  058%=      5-min Rain = 0
KUM1 120337Z 05013KT 05/M03 A3001 RMK A01 T00531026  RH  057%=      5-min Rain = 0
KUM1 120338Z 05013KT 05/M03 A3001 RMK A01 T00541027  RH  056%=      5-min Rain = 0
KUM1 120339Z 05013KT 05/M03 A3001 RMK A01 T00531028  RH  056%=      5-min Rain = 0
KUM1 120340Z 06012KT 05/M03 A3001 RMK A01 T00521029  RH  056%=      5-min Rain = 0
KUM1 120341Z 06013KT 05/M03 A3001 RMK A01 T00521030  RH  056%=      5-min Rain = 0
KUM1 120342Z 06013KT 05/M03 A3001 RMK A01 T00511032  RH  055%=      5-min Rain = 0
KUM1 120343Z 06013KT 05/M03 A3001 RMK A01 T00521034  RH  054%=      5-min Rain = 0
KUM1 120344Z 06012KT 05/M03 A3001 RMK A01 T00531034  RH  053%=      5-min Rain = 0
KUM1 120345Z 06012KT 05/M04 A3001 RMK A01 T00531036  RH  053%=      5-min Rain = 0
KUM1 120346Z 06012KT 05/M04 A3001 RMK A01 T00531036  RH  053%=      5-min Rain = 0
KUM1 120347Z 06013KT 05/M04 A3001 RMK A01 T00531036  RH  052%=      5-min Rain = 0
KUM1 120348Z 06012KT 05/M04 A3001 RMK A01 T00531039  RH  051%=      5-min Rain = 0
KUM1 120349Z 07013KT 05/M04 A30 RMK A01 T00541040  RH  050%=      5-min Rain = 0
KUM1 120350Z 06013KT 06/M04 A30 RMK A01 T00551042  RH  050%=      5-min Rain = 0
KUM1 120351Z 06012KT 06/M04 A30 RMK A01 T00561044  RH  049%=      5-min Rain = 0
KUM1 120352Z 06013KT 06/M05 A30 RMK A01 T00571045  RH  048%=      5-min Rain = 0
KUM1 120353Z 06013KT 06/M05 A3001 RMK A01 T00571047  RH  047%=      5-min Rain = 0
KUM1 120354Z 06013KT 06/M05 A3001 RMK A01 T00571048  RH  047%=      5-min Rain = 0
KUM1 120355Z 06012KT 06/M05 A3001 RMK A01 T00581049  RH  046%=      5-min Rain = 0
KUM1 120356Z 05014KT 06/M05 A3001 RMK A01 T00581049  RH  046%=      5-min Rain = 0
KUM1 120357Z 05014KT 06/M05 A3001 RMK A01 T00571051  RH  046%=      5-min Rain = 0
KUM1 120358Z 05014KT 06/M05 A3001 RMK A01 T00571053  RH  045%=      5-min Rain = 0
KUM1 120359Z 05014KT 06/M05 A3001 RMK A01 T00571054  RH  045%=      5-min Rain = 0
KUM1 120400Z 05013KT 06/M06 A3001 RMK A01 T00561055  RH  045%=      5-min Rain = 0
KUM1 120401Z 05013KT 06/M06 A3001 RMK A01 T00551056  RH  045%=      5-min Rain = 0
KUM1 120402Z 05013KT 05/M06 A3001 RMK A01 T00541057  RH  045%=      5-min Rain = 0
KUM1 120403Z 05012KT 05/M06 A3001 RMK A01 T00541057  RH  045%=      5-min Rain = 0
KUM1 120404Z 05011KT 05/M06 A3001 RMK A01 T00521057  RH  045%=      5-min Rain = 0
KUM1 120405Z 05012KT 05/M06 A3001 RMK A01 T00511057  RH  046%=      5-min Rain = 0
KUM1 120406Z 05012KT 05/M06 A3001 RMK A01 T00501057  RH  046%=      5-min Rain = 0
KUM1 120407Z 06013KT 05/M06 A3001 RMK A01 T00511058  RH  045%=      5-min Rain = 0
KUM1 120408Z 06013KT 05/M06 A30 RMK A01 T00511058  RH  045%=      5-min Rain = 0
KUM1 120409Z 06013KT 05/M06 A30 RMK A01 T00511058  RH  045%=      5-min Rain = 0
KUM1 120410Z 06013KT 05/M06 A30 RMK A01 T00511060  RH  045%=      5-min Rain = 0
KUM1 120411Z 06012KT 05/M06 A3001 RMK A01 T00511060  RH  044%=      5-min Rain = 0
KUM1 120412Z 06011KT 05/M06 A3001 RMK A01 T00511060  RH  045%=      5-min Rain = 0
KUM1 120413Z 06013KT 05/M06 A3001 RMK A01 T00501060  RH  045%=      5-min Rain = 0
KUM1 120414Z 06012KT 05/M06 A3001 RMK A01 T00511062  RH  044%=      5-min Rain = 0
KUM1 120415Z 06011KT 05/M06 A3001 RMK A01 T00511062  RH  044%=      5-min Rain = 0
KUM1 120416Z 06011KT 05/M06 A3001 RMK A01 T00501063  RH  044%=      5-min Rain = 0
KUM1 120417Z 06011KT 05/M06 A3001 RMK A01 T00501063  RH  044%=      5-min Rain = 0
KUM1 120418Z 06012KT 05/M06 A3001 RMK A01 T00501063  RH  044%=      5-min Rain = 0
KUM1 120419Z 06011KT 05/M06 A3001 RMK A01 T00491064  RH  044%=      5-min Rain = 0
KUM1 120420Z 06011KT 05/M06 A3001 RMK A01 T00481064  RH  044%=      5-min Rain = 0
KUM1 120421Z 05011KT 05/M06 A3001 RMK A01 T00481064  RH  044%=      5-min Rain = 0
KUM1 120422Z 05011KT 05/M06 A3002 RMK A01 T00481064  RH  044%=      5-min Rain = 0
KUM1 120423Z 05011KT 05/M06 A3002 RMK A01 T00471064  RH  044%=      5-min Rain = 0
KUM1 120424Z 05010KT 05/M07 A3002 RMK A01 T00461065  RH  045%=      5-min Rain = 0
KUM1 120425Z 06011KT 05/M07 A3002 RMK A01 T00451065  RH  045%=      5-min Rain = 0
KUM1 120426Z 06010KT 04/M07 A3002 RMK A01 T00441065  RH  045%=      5-min Rain = 0
KUM1 120427Z 06010KT 04/M07 A3002 RMK A01 T00431065  RH  045%=      5-min Rain = 0
KUM1 120428Z 06009KT 04/M07 A3002 RMK A01 T00421065  RH  046%=      5-min Rain = 0
KUM1 120429Z 06009KT 04/M07 A3002 RMK A01 T00421065  RH  046%=      5-min Rain = 0
KUM1 120430Z 07008KT 04/M07 A3002 RMK A01 T00411065  RH  046%=      5-min Rain = 0
KUM1 120431Z 07008KT 04/M06 A3002 RMK A01 T00411064  RH  046%=      5-min Rain = 0
KUM1 120432Z 07008KT 04/M06 A3002 RMK A01 T00401064  RH  047%=      5-min Rain = 0
KUM1 120433Z 07008KT 04/M07 A3001 RMK A01 T00391065  RH  047%=      5-min Rain = 0
KUM1 120434Z 07007KT 04/M07 A3001 RMK A01 T00381065  RH  047%=      5-min Rain = 0
KUM1 120435Z 07007KT 04/M07 A3001 RMK A01 T00371065  RH  047%=      5-min Rain = 0
KUM1 120436Z 08008KT 04/M07 A3001 RMK A01 T00361065  RH  048%=      5-min Rain = 0
KUM1 120437Z 08008KT 04/M07 A3001 RMK A01 T00351065  RH  048%=      5-min Rain = 0
KUM1 120438Z 08008KT 04/M07 A3001 RMK A01 T00351066  RH  048%=      5-min Rain = 0
KUM1 120439Z 07008KT 03/M07 A3001 RMK A01 T00341066  RH  048%=      5-min Rain = 0
KUM1 120440Z 07009KT 03/M07 A3001 RMK A01 T00341067  RH  048%=      5-min Rain = 0
KUM1 120441Z 07009KT 03/M07 A3001 RMK A01 T00341067  RH  047%=      5-min Rain = 0
KUM1 120442Z 07010KT 04/M07 A3001 RMK A01 T00351067  RH  047%=      5-min Rain = 0
KUM1 120443Z 07010KT 04/M07 A3001 RMK A01 T00351067  RH  047%=      5-min Rain = 0
KUM1 120444Z 07010KT 03/M07 A3001 RMK A01 T00341067  RH  048%=      5-min Rain = 0
KUM1 120445Z 07010KT 04/M07 A3001 RMK A01 T00351067  RH  047%=      5-min Rain = 0
KUM1 120446Z 07009KT 03/M07 A3001 RMK A01 T00341067  RH  047%=      5-min Rain = 0
KUM1 120447Z 07009KT 03/M07 A3001 RMK A01 T00341067  RH  047%=      5-min Rain = 0
KUM1 120448Z 07009KT 03/M07 A3001 RMK A01 T00341067  RH  047%=      5-min Rain = 0
KUM1 120449Z 07009KT 03/M07 A3001 RMK A01 T00341067  RH  048%=      5-min Rain = 0
KUM1 120450Z 06010KT 03/M07 A3001 RMK A01 T00331067  RH  048%=      5-min Rain = 0
KUM1 120451Z 06009KT 03/M07 A3001 RMK A01 T00321067  RH  048%=      5-min Rain = 0
KUM1 120452Z 06009KT 03/M07 A3001 RMK A01 T00321067  RH  048%=      5-min Rain = 0
KUM1 120453Z 06009KT 03/M07 A3001 RMK A01 T00311067  RH  049%=      5-min Rain = 0
KUM1 120454Z 06008KT 03/M07 A3001 RMK A01 T00311066  RH  049%=      5-min Rain = 0
KUM1 120455Z 07009KT 03/M07 A3001 RMK A01 T00311066  RH  049%=      5-min Rain = 0
KUM1 120456Z 07009KT 03/M07 A3001 RMK A01 T00311066  RH  049%=      5-min Rain = 0
KUM1 120457Z 07009KT 03/M07 A3001 RMK A01 T00311066  RH  049%=      5-min Rain = 0
KUM1 120458Z 07009KT 03/M07 A3001 RMK A01 T00311066  RH  049%=      5-min Rain = 0
KUM1 120459Z 06009KT 03/M07 A3001 RMK A01 T00311067  RH  049%=      5-min Rain = 0
KUM1 120500Z 06010KT 03/M07 A3001 RMK A01 T00311067  RH  049%=      5-min Rain = 0
KUM1 120501Z 06009KT 03/M07 A3001 RMK A01 T00311068  RH  048%=      5-min Rain = 0
KUM1 120502Z 06009KT 03/M07 A3001 RMK A01 T00311067  RH  049%=      5-min Rain = 0
KUM1 120503Z 06009KT 03/M07 A3001 RMK A01 T00301067  RH  049%=      5-min Rain = 0
KUM1 120504Z 06009KT 03/M07 A3001 RMK A01 T00291068  RH  049%=      5-min Rain = 0
KUM1 120505Z 06009KT 03/M07 A3001 RMK A01 T00281069  RH  049%=      5-min Rain = 0
KUM1 120506Z 06009KT 03/M07 A3001 RMK A01 T00281069  RH  049%=      5-min Rain = 0
KUM1 120507Z 06008KT 03/M07 A3001 RMK A01 T00281070  RH  049%=      5-min Rain = 0
KUM1 120508Z 06007KT 03/M07 A3001 RMK A01 T00281070  RH  049%=      5-min Rain = 0
KUM1 120509Z 07007KT 03/M07 A3001 RMK A01 T00271070  RH  049%=      5-min Rain = 0
KUM1 120510Z 07007KT 03/M07 A3001 RMK A01 T00271070  RH  049%=      5-min Rain = 0
KUM1 120511Z 07007KT 03/M07 A3001 RMK A01 T00271070  RH  049%=      5-min Rain = 0
KUM1 120512Z 07007KT 03/M07 A3001 RMK A01 T00271070  RH  049%=      5-min Rain = 0
KUM1 120513Z 06007KT 03/M07 A3001 RMK A01 T00271069  RH  049%=      5-min Rain = 0
KUM1 120514Z 06006KT 03/M07 A3001 RMK A01 T00261068  RH  050%=      5-min Rain = 0
KUM1 120515Z 06006KT 03/M07 A3001 RMK A01 T00251068  RH  050%=      5-min Rain = 0
KUM1 120516Z 06006KT 02/M07 A3001 RMK A01 T00231068  RH  051%=      5-min Rain = 0
KUM1 120517Z 06007KT 02/M07 A3001 RMK A01 T00221068  RH  051%=      5-min Rain = 0
KUM1 120518Z 06007KT 02/M07 A3001 RMK A01 T00211069  RH  051%=      5-min Rain = 0
KUM1 120519Z 06006KT 02/M07 A3002 RMK A01 T00201069  RH  052%=      5-min Rain = 0
KUM1 120520Z 06006KT 02/M07 A3002 RMK A01 T00191069  RH  052%=      5-min Rain = 0
KUM1 120521Z 06007KT 02/M07 A3001 RMK A01 T00191068  RH  052%=      5-min Rain = 0
KUM1 120522Z 06007KT 02/M07 A3001 RMK A01 T00181069  RH  053%=      5-min Rain = 0
KUM1 120523Z 06007KT 02/M07 A3001 RMK A01 T00171069  RH  053%=      5-min Rain = 0
KUM1 120524Z 06007KT 02/M07 A3001 RMK A01 T00171069  RH  053%=      5-min Rain = 0
KUM1 120525Z 06007KT 02/M07 A3001 RMK A01 T00161069  RH  053%=      5-min Rain = 0
KUM1 120526Z 06007KT 02/M07 A3001 RMK A01 T00161068  RH  054%=      5-min Rain = 0
KUM1 120527Z 06007KT 02/M07 A3001 RMK A01 T00151069  RH  054%=      5-min Rain = 0
KUM1 120528Z 06007KT 01/M07 A3001 RMK A01 T00141069  RH  054%=      5-min Rain = 0
KUM1 120529Z 06006KT 01/M07 A3001 RMK A01 T00131070  RH  054%=      5-min Rain = 0
KUM1 120530Z 06006KT 01/M07 A3001 RMK A01 T00121070  RH  054%=      5-min Rain = 0
KUM1 120531Z 06007KT 01/M07 A3001 RMK A01 T00111070  RH  054%=      5-min Rain = 0
KUM1 120532Z 06007KT 01/M07 A3001 RMK A01 T00111070  RH  055%=      5-min Rain = 0
KUM1 120533Z 06007KT 01/M07 A3001 RMK A01 T00101071  RH  055%=      5-min Rain = 0
KUM1 120534Z 06007KT 01/M07 A3001 RMK A01 T00091072  RH  055%=      5-min Rain = 0
KUM1 120535Z 06007KT 01/M07 A3001 RMK A01 T00091073  RH  054%=      5-min Rain = 0
KUM1 120536Z 05007KT 01/M07 A3001 RMK A01 T00081073  RH  054%=      5-min Rain = 0
KUM1 120537Z 05007KT 01/M07 A3001 RMK A01 T00081074  RH  054%=      5-min Rain = 0
KUM1 120538Z 05007KT 01/M08 A3001 RMK A01 T00071075  RH  054%=      5-min Rain = 0
KUM1 120539Z 05007KT 01/M08 A3001 RMK A01 T00071075  RH  054%=      5-min Rain = 0
KUM1 120540Z 05007KT 01/M08 A3001 RMK A01 T00071075  RH  054%=      5-min Rain = 0
KUM1 120541Z 06007KT 01/M08 A3001 RMK A01 T00071075  RH  054%=      5-min Rain = 0
KUM1 120542Z 06006KT 01/M08 A3001 RMK A01 T00061076  RH  054%=      5-min Rain = 0
KUM1 120543Z 07006KT 01/M08 A3001 RMK A01 T00051076  RH  054%=      5-min Rain = 0
KUM1 120544Z 07005KT 01/M08 A3001 RMK A01 T00071076  RH  054%=      5-min Rain = 0
KUM1 120545Z 07005KT 01/M08 A3001 RMK A01 T00081075  RH  054%=      5-min Rain = 0
KUM1 120546Z 08004KT 01/M07 A3001 RMK A01 T00091074  RH  054%=      5-min Rain = 0
KUM1 120547Z 09004KT 01/M07 A3001 RMK A01 T00101072  RH  055%=      5-min Rain = 0
KUM1 120548Z 12003KT 01/M07 A3001 RMK A01 T00091072  RH  055%=      5-min Rain = 0
KUM1 120549Z 11003KT 01/M08 A3001 RMK A01 T00051078  RH  054%=      5-min Rain = 0
KUM1 120550Z 10003KT 00/08 A3001 RMK A01 T00000-82  RH  054%=      5-min Rain = 0
KUM1 120551Z 10003KT M00/M08 A3001 RMK A01 T10021082  RH  055%=      5-min Rain = 0
KUM1 120552Z 10004KT M00/M08 A3001 RMK A01 T10031082  RH  055%=      5-min Rain = 0
KUM1 120553Z 09005KT M00/M08 A3001 RMK A01 T10021080  RH  056%=      5-min Rain = 0
KUM1 120554Z 10006KT 00/08 A3001 RMK A01 T00000-79  RH  055%=      5-min Rain = 0
KUM1 120555Z 10005KT 00/M08 A3001 RMK A01 T00031078  RH  055%=      5-min Rain = 0
KUM1 120556Z 10005KT 00/M08 A3001 RMK A01 T00041078  RH  054%=      5-min Rain = 0
KUM1 120557Z 10004KT 00/M08 A3001 RMK A01 T00041079  RH  054%=      5-min Rain = 0
KUM1 120558Z 10005KT 00/M08 A30 RMK A01 T00031080  RH  054%=      5-min Rain = 0
KUM1 120559Z 10005KT 00/M08 A30 RMK A01 T00031080  RH  054%=      5-min Rain = 0

Page generated in 0.1219 seconds.